FW6030 Weather Reports


time (UTC)temp
F
wind
direction
speed
knots
gust
knots
rain 1hr
in
rain 24hr
in
rain mn
in
humidity
%
barometer
mb
20260831014632 91 360 7.8 12.2 0.00 0.00 0.00 52 1014.4
20260831014551 90 360 7.8 12.2 0.00 0.00 0.00 52 1014.4
20260831014431 90 360 8.7 12.2 0.00 0.00 0.00 52 1014.4
20260831014351 90 360 8.7 12.2 0.00 0.00 0.00 52 1014.4
20260831014231 90 360 8.7 12.2 0.00 0.00 0.00 51 1014.4
20260831014151 90 360 7.8 12.2 0.00 0.00 0.00 51 1014.4
20260831014034 90 360 7.0 10.4 0.00 0.00 0.00 50 1014.3
20260831013935 90 360 6.1 7.8 0.00 0.00 0.00 50 1014.3
20260831013853 90 360 5.2 7.8 0.00 0.00 0.00 50 1014.3
20260831013733 90 360 4.3 7.8 0.00 0.00 0.00 50 1014.3
20260831013632 90 360 4.3 5.2 0.00 0.00 0.00 50 1014.2
20260831013554 90 360 3.5 4.3 0.00 0.00 0.00 50 1014.1
20260831013432 90 360 3.5 4.3 0.00 0.00 0.00 50 1014.1
20260831013317 90 360 3.5 4.3 0.00 0.00 0.00 49 1014.1
20260831013217 90 360 3.5 4.3 0.00 0.00 0.00 49 1014.1
20260831013118 91 167 3.5 4.3 0.00 0.00 0.00 49 1014.1
20260831013038 91 360 3.5 4.3 0.00 0.00 0.00 49 1014.1
20260831012917 91 360 2.6 4.3 0.00 0.00 0.00 49 1014.0
20260831012820 91 360 2.6 4.3 0.00 0.00 0.00 49 1014.0
20260831012740 91 360 2.6 4.3 0.00 0.00 0.00 49 1014.0
20260831012623 91 360 2.6 4.3 0.00 0.00 0.00 49 1014.0
20260831012544 91 360 2.6 5.2 0.00 0.00 0.00 49 1014.0
20260831012443 91 360 2.6 5.2 0.00 0.00 0.00 49 1014.0
20260831012343 91 360 2.6 5.2 0.00 0.00 0.00 49 1014.0
20260831012222 91 360 2.6 5.2 0.00 0.00 0.00 49 1014.0
20260831012123 91 360 2.6 5.2 0.00 0.00 0.00 49 1014.0
20260831012023 91 360 3.5 5.2 0.00 0.00 0.00 49 1013.9
20260831011925 91 360 3.5 5.2 0.00 0.00 0.00 49 1013.9
20260831011824 91 360 3.5 5.2 0.00 0.00 0.00 49 1014.0
20260831011728 91 360 3.5 5.2 0.00 0.00 0.00 49 1013.9
20260831011629 91 360 3.5 7.0 0.00 0.00 0.00 49 1013.9
20260831011529 91 360 3.5 8.7 0.00 0.00 0.00 49 1013.9
20260831011429 91 360 3.5 8.7 0.00 0.00 0.00 49 1013.9
20260831011329 91 360 3.5 8.7 0.00 0.00 0.00 49 1014.0
20260831011231 91 360 3.5 8.7 0.00 0.00 0.00 49 1014.0
20260831011116 91 360 3.5 8.7 0.00 0.00 0.00 49 1014.0
20260831011016 91 360 4.3 8.7 0.00 0.00 0.00 49 1014.0
20260831010916 91 360 4.3 8.7 0.00 0.00 0.00 48 1014.0
20260831010818 92 360 4.3 8.7 0.00 0.00 0.00 48 1014.0
20260831010738 92 360 4.3 8.7 0.00 0.00 0.00 48 1014.1
20260831010638 92 360 4.3 8.7 0.00 0.00 0.00 48 1014.1
20260831010518 92 360 4.3 8.7 0.00 0.00 0.00 48 1014.0
20260831010422 92 360 4.3 8.7 0.00 0.00 0.00 48 1014.0
20260831010323 92 360 3.5 5.2 0.00 0.00 0.00 48 1014.0
20260831010224 92 360 3.5 5.2 0.00 0.00 0.00 48 1014.0
20260831010125 92 360 3.5 5.2 0.00 0.00 0.00 48 1013.9
20260831010046 92 360 3.5 4.3 0.00 0.00 0.00 48 1013.9
20260831005925 92 360 3.5 4.3 0.00 0.00 0.00 48 1014.0
20260831005827 92 360 2.6 4.3 0.00 0.00 0.00 48 1013.9
20260831005730 92 165 2.6 5.2 0.00 0.00 0.00 48 1014.0
20260831005631 92 360 2.6 5.2 0.00 0.00 0.00 48 1013.9
20260831005532 92 360 2.6 5.2 0.00 0.00 0.00 48 1014.0
20260831005433 92 165 2.6 5.2 0.00 0.00 0.00 48 1013.9
20260831005332 92 165 2.6 5.2 0.00 0.00 0.00 47 1013.9
20260831005233 92 360 2.6 5.2 0.00 0.00 0.00 47 1013.9
20260831005118 92 360 3.5 5.2 0.00 0.00 0.00 47 1013.9
20260831005019 92 360 3.5 5.2 0.00 0.00 0.00 47 1013.8
20260831004919 93 360 3.5 5.2 0.00 0.00 0.00 47 1013.9
20260831004841 93 360 3.5 5.2 0.00 0.00 0.00 47 1013.8
20260831004721 93 360 2.6 5.2 0.00 0.00 0.00 47 1013.9
20260831004622 93 360 3.5 5.2 0.00 0.00 0.00 47 1014.0
20260831004522 93 360 2.6 5.2 0.00 0.00 0.00 47 1013.9
20260831004442 93 360 2.6 5.2 0.00 0.00 0.00 46 1013.9
20260831004325 93 360 3.5 5.2 0.00 0.00 0.00 46 1014.0
20260831004226 93 360 3.5 5.2 0.00 0.00 0.00 46 1013.9
20260831004128 93 360 3.5 7.8 0.00 0.00 0.00 46 1013.9
20260831004029 93 360 3.5 7.8 0.00 0.00 0.00 46 1013.8
20260831003929 93 360 3.5 7.8 0.00 0.00 0.00 46 1013.8
20260831003831 93 360 3.5 7.8 0.00 0.00 0.00 45 1013.8
20260831003734 93 360 3.5 7.8 0.00 0.00 0.00 45 1013.9
20260831003616 94 360 3.5 7.8 0.00 0.00 0.00 45 1013.8
20260831003517 94 360 3.5 8.7 0.00 0.00 0.00 45 1013.8
20260831003416 94 360 3.5 8.7 0.00 0.00 0.00 45 1013.8
20260831003338 94 360 3.5 8.7 0.00 0.00 0.00 45 1013.8
20260831003216 94 360 3.5 8.7 0.00 0.00 0.00 45 1013.7
20260831003117 94 360 4.3 11.3 0.00 0.00 0.00 45 1013.8
20260831003021 94 360 5.2 11.3 0.00 0.00 0.00 44 1013.9
20260831002922 94 360 5.2 11.3 0.00 0.00 0.00 44 1013.8
20260831002843 94 360 5.2 13.0 0.00 0.00 0.00 44 1013.8
20260831002722 94 360 4.3 13.0 0.00 0.00 0.00 45 1013.8
20260831002642 94 360 5.2 13.0 0.00 0.00 0.00 44 1013.9
20260831002522 94 360 6.1 13.0 0.00 0.00 0.00 44 1013.8
20260831002422 94 360 7.0 13.0 0.00 0.00 0.00 44 1013.8
20260831002323 94 360 7.8 13.0 0.00 0.00 0.00 43 1013.8
20260831002228 95 360 8.7 13.0 0.00 0.00 0.00 43 1013.7
20260831002127 95 360 8.7 13.0 0.00 0.00 0.00 43 1013.8
20260831002028 95 360 7.8 13.0 0.00 0.00 0.00 43 1013.7
20260831001930 95 360 6.1 12.2 0.00 0.00 0.00 44 1013.7
20260831001831 95 360 6.1 12.2 0.00 0.00 0.00 44 1013.8
20260831001731 95 360 6.1 12.2 0.00 0.00 0.00 45 1013.7
20260831001617 95 360 5.2 12.2 0.00 0.00 0.00 45 1013.8
20260831001516 95 360 7.0 12.2 0.00 0.00 0.00 45 1013.7
20260831001437 95 360 7.8 12.2 0.00 0.00 0.00 45 1013.7
20260831001336 95 360 7.8 12.2 0.00 0.00 0.00 45 1013.6
20260831001257 95 360 8.7 12.2 0.00 0.00 0.00 45 1013.7
20260831001116 95 360 7.0 10.4 0.00 0.00 0.00 45 1013.6
20260831001017 95 360 6.1 10.4 0.00 0.00 0.00 45 1013.7
20260831000917 95 360 5.2 9.6 0.00 0.00 0.00 46 1013.7
20260831000823 95 360 4.3 9.6 0.00 0.00 0.00 46 1013.7
20260831000722 95 360 4.3 9.6 0.00 0.00 0.00 45 1013.7
20260831000643 95 360 3.5 9.6 0.00 0.00 0.00 45 1013.7
20260831000541 95 360 3.5 9.6 0.00 0.00 0.00 45 1013.7
20260831000420 95 360 3.5 9.6 0.00 0.00 0.00 45 1013.7
20260831000320 95 360 3.5 7.8 0.00 0.00 0.00 46 1013.7
20260831000220 95 360 2.6 7.8 0.00 0.00 0.00 45 1013.7
20260831000121 95 360 2.6 7.8 0.00 0.00 0.00 44 1013.7
20260831000025 95 360 3.5 7.8 0.00 0.00 0.00 45 1013.7
20260830235925 95 360 3.5 7.8 0.00 0.00 0.00 45 1013.7
20260830235846 95 360 3.5 9.6 0.00 0.00 0.00 45 1013.7
20260830235725 95 360 3.5 9.6 0.00 0.00 0.00 45 1013.7
20260830235626 95 360 3.5 9.6 0.00 0.00 0.00 45 1013.7
20260830235528 95 360 3.5 9.6 0.00 0.00 0.00 45 1013.7
20260830235428 95 360 2.6 9.6 0.00 0.00 0.00 45 1013.6
20260830235333 95 184 3.5 9.6 0.00 0.00 0.00 45 1013.7
20260830235254 95 360 4.3 9.6 0.00 0.00 0.00 45 1013.5
20260830235154 95 360 5.2 9.6 0.00 0.00 0.00 45 1013.6
20260830235035 95 360 6.1 9.6 0.00 0.00 0.00 44 1013.7
20260830234916 95 360 5.2 9.6 0.00 0.00 0.00 44 1013.7
20260830234815 95 360 5.2 9.6 0.00 0.00 0.00 44 1013.7
20260830234716 95 360 5.2 9.6 0.00 0.00 0.00 45 1013.8
20260830234620 95 360 6.1 9.6 0.00 0.00 0.00 45 1013.7
20260830234541 95 360 6.1 9.6 0.00 0.00 0.00 45 1013.7
20260830234422 95 165 5.2 9.6 0.00 0.00 0.00 45 1013.8
20260830234321 95 360 3.5 8.7 0.00 0.00 0.00 44 1013.8
20260830234242 96 360 3.5 9.6 0.00 0.00 0.00 44 1013.8
20260830234121 96 360 2.6 9.6 0.00 0.00 0.00 45 1013.8
20260830234022 96 360 2.6 9.6 0.00 0.00 0.00 44 1013.8
20260830233922 96 360 3.5 9.6 0.00 0.00 0.00 44 1013.8
20260830233828 96 360 2.6 9.6 0.00 0.00 0.00 44 1013.8
20260830233727 96 360 3.5 9.6 0.00 0.00 0.00 44 1013.8
20260830233628 96 360 4.3 9.6 0.00 0.00 0.00 44 1013.8
20260830233529 96 360 5.2 9.6 0.00 0.00 0.00 44 1013.9
20260830233429 96 360 5.2 9.6 0.00 0.00 0.00 44 1013.9
20260830233329 96 360 5.2 9.6 0.00 0.00 0.00 43 1013.9
20260830233247 96 360 3.5 7.0 0.00 0.00 0.00 44 1013.9
20260830233131 96 360 3.5 5.2 0.00 0.00 0.00 42 1013.9
20260830233052 96 360 3.5 7.8 0.00 0.00 0.00 43 1013.8
20260830232931 96 360 3.5 7.8 0.00 0.00 0.00 43 1013.8
20260830232832 96 360 2.6 7.8 0.00 0.00 0.00 44 1013.8
20260830232752 96 360 2.6 7.8 0.00 0.00 0.00 44 1013.8
20260830232632 96 360 2.6 7.8 0.00 0.00 0.00 43 1013.8
20260830232553 96 360 2.6 7.8 0.00 0.00 0.00 43 1013.8
20260830232432 96 360 1.7 7.8 0.00 0.00 0.00 43 1013.8
20260830232335 96 360 2.6 8.7 0.00 0.00 0.00 44 1013.9
20260830232216 95 360 2.6 8.7 0.00 0.00 0.00 44 1013.9
20260830232116 95 360 4.3 8.7 0.00 0.00 0.00 44 1013.9
20260830232016 95 360 4.3 8.7 0.00 0.00 0.00 44 1013.8
20260830231917 95 360 5.2 8.7 0.00 0.00 0.00 44 1013.9
20260830231817 95 360 5.2 8.7 0.00 0.00 0.00 43 1013.9
20260830231722 96 197 5.2 8.7 0.00 0.00 0.00 43 1013.9
20260830231622 96 360 4.3 8.7 0.00 0.00 0.00 44 1013.9
20260830231522 96 360 4.3 8.7 0.00 0.00 0.00 44 1013.8
20260830231422 96 360 5.2 8.7 0.00 0.00 0.00 44 1013.8
20260830231322 96 360 5.2 8.7 0.00 0.00 0.00 43 1013.8
20260830231223 96 360 6.1 8.7 0.00 0.00 0.00 43 1013.8
20260830231124 96 360 5.2 8.7 0.00 0.00 0.00 43 1013.8
20260830231028 96 360 4.3 8.7 0.00 0.00 0.00 43 1013.8
20260830230929 96 360 3.5 7.8 0.00 0.00 0.00 43 1013.9
20260830230830 96 360 2.6 7.8 0.00 0.00 0.00 43 1013.8
20260830230731 96 360 1.7 7.8 0.00 0.00 0.00 42 1013.9
20260830230652 96 360 1.7 7.8 0.00 0.00 0.00 42 1013.9
20260830230531 96 360 2.6 7.8 0.00 0.00 0.00 43 1013.8
20260830230431 96 360 2.6 9.6 0.00 0.00 0.00 42 1013.8
20260830230316 96 360 3.5 9.6 0.00 0.00 0.00 44 1013.9
20260830230217 96 360 3.5 9.6 0.00 0.00 0.00 44 1013.9
20260830230118 96 360 3.5 9.6 0.00 0.00 0.00 43 1013.9
20260830230019 96 360 3.5 9.6 0.00 0.00 0.00 43 1013.9
20260830225920 96 360 4.3 9.6 0.00 0.00 0.00 42 1014.0
20260830225822 96 360 4.3 9.6 0.00 0.00 0.00 42 1013.9
20260830225725 96 360 4.3 9.6 0.00 0.00 0.00 42 1013.9
20260830225626 96 360 3.5 9.6 0.00 0.00 0.00 42 1013.9
20260830225526 97 360 2.6 7.0 0.00 0.00 0.00 42 1013.9
20260830225426 96 360 1.7 7.0 0.00 0.00 0.00 42 1013.9
20260830225327 96 360 2.6 7.0 0.00 0.00 0.00 42 1013.9
20260830225227 96 360 2.6 5.2 0.00 0.00 0.00 42 1013.9
20260830225127 96 360 1.7 5.2 0.00 0.00 0.00 43 1013.9
20260830225053 96 360 2.6 5.2 0.00 0.00 0.00 43 1013.9
20260830224932 96 360 2.6 7.0 0.00 0.00 0.00 44 1013.9
20260830224852 96 360 2.6 7.8 0.00 0.00 0.00 44 1013.9
20260830224732 96 157 2.6 10.4 0.00 0.00 0.00 43 1013.9
20260830224632 96 360 2.6 10.4 0.00 0.00 0.00 44 1014.0
20260830224533 96 360 2.6 10.4 0.00 0.00 0.00 44 1013.9
20260830224433 96 121 3.5 10.4 0.00 0.00 0.00 43 1014.0
20260830224318 96 360 3.5 10.4 0.00 0.00 0.00 43 1014.0
20260830224219 96 360 4.3 10.4 0.00 0.00 0.00 43 1014.1
20260830224119 96 360 4.3 11.3 0.00 0.00 0.00 42 1014.0
20260830224020 96 151 3.5 11.3 0.00 0.00 0.00 42 1014.1
20260830223921 96 360 2.6 11.3 0.00 0.00 0.00 43 1014.1
20260830223822 96 360 1.7 11.3 0.00 0.00 0.00 43 1014.1
20260830223727 96 360 2.6 11.3 0.00 0.00 0.00 43 1014.2
20260830223628 96 360 3.5 11.3 0.00 0.00 0.00 44 1014.1
20260830223528 95 360 6.1 11.3 0.00 0.00 0.00 44 1014.1
20260830223429 95 360 7.8 13.9 0.00 0.00 0.00 44 1014.1
20260830223328 95 360 8.7 13.9 0.00 0.00 0.00 43 1014.1
20260830223229 95 360 7.8 13.9 0.00 0.00 0.00 43 1014.1
20260830223129 95 159 7.0 13.9 0.00 0.00 0.00 44 1014.1
20260830223034 95 360 5.2 13.9 0.00 0.00 0.00 45 1014.0
20260830222934 95 360 3.5 13.9 0.00 0.00 0.00 45 1014.1
20260830222816 96 360 5.2 13.9 0.00 0.00 0.00 45 1014.1
20260830222716 96 360 6.1 13.9 0.00 0.00 0.00 45 1014.0
20260830222617 96 360 7.0 13.9 0.00 0.00 0.00 45 1014.0
20260830222518 96 360 7.0 13.9 0.00 0.00 0.00 46 1014.0
20260830222422 96 360 7.0 13.0 0.00 0.00 0.00 45 1013.9
20260830222322 96 360 6.1 11.3 0.00 0.00 0.00 45 1014.1
20260830222224 96 360 6.1 11.3 0.00 0.00 0.00 45 1014.0
20260830222125 96 360 5.2 11.3 0.00 0.00 0.00 44 1014.0
20260830222045 96 360 5.2 11.3 0.00 0.00 0.00 43 1014.0
20260830221926 96 360 6.1 11.3 0.00 0.00 0.00 44 1014.0
20260830221826 96 360 6.1 11.3 0.00 0.00 0.00 44 1014.1
20260830221751 96 360 7.0 11.3 0.00 0.00 0.00 44 1014.1
20260830221629 96 360 7.0 11.3 0.00 0.00 0.00 44 1014.1
20260830221530 96 360 6.1 13.0 0.00 0.00 0.00 42 1014.1
20260830221431 96 360 5.2 13.0 0.00 0.00 0.00 42 1014.1
20260830221331 96 360 5.2 13.0 0.00 0.00 0.00 42 1014.1
20260830221231 96 360 6.1 13.0 0.00 0.00 0.00 42 1014.1
20260830221116 96 360 7.0 13.0 0.00 0.00 0.00 44 1014.2
20260830221017 95 360 7.8 13.0 0.00 0.00 0.00 43 1014.3
20260830220937 95 360 7.8 13.0 0.00 0.00 0.00 43 1014.2
20260830220817 95 360 8.7 13.0 0.00 0.00 0.00 43 1014.3
20260830220718 95 360 8.7 13.0 0.00 0.00 0.00 43 1014.3
20260830220619 95 360 8.7 13.0 0.00 0.00 0.00 44 1014.2
20260830220519 96 360 7.8 12.2 0.00 0.00 0.00 43 1014.3
20260830220424 96 144 8.7 12.2 0.00 0.00 0.00 44 1014.3
20260830220324 95 360 8.7 12.2 0.00 0.00 0.00 44 1014.3
20260830220225 96 360 7.0 12.2 0.00 0.00 0.00 45 1014.3
20260830220125 95 360 6.1 12.2 0.00 0.00 0.00 46 1014.3
20260830220025 95 360 3.5 11.3 0.00 0.00 0.00 46 1014.4
20260830215926 95 360 3.5 11.3 0.00 0.00 0.00 45 1014.3
20260830215828 95 360 5.2 11.3 0.00 0.00 0.00 45 1014.4
20260830215732 95 360 7.0 11.3 0.00 0.00 0.00 45 1014.4
20260830215653 95 360 7.8 11.3 0.00 0.00 0.00 45 1014.4
20260830215533 95 360 7.0 11.3 0.00 0.00 0.00 44 1014.3
20260830215432 95 360 6.1 11.3 0.00 0.00 0.00 45 1014.3
20260830215332 95 360 5.2 11.3 0.00 0.00 0.00 44 1014.4
20260830215234 95 360 7.0 11.3 0.00 0.00 0.00 44 1014.4
20260830215155 95 360 7.0 11.3 0.00 0.00 0.00 44 1014.4
20260830215017 95 360 7.0 11.3 0.00 0.00 0.00 43 1014.4
20260830214916 95 360 7.0 13.9 0.00 0.00 0.00 44 1014.4
20260830214817 95 360 6.1 13.9 0.00 0.00 0.00 44 1014.5
20260830214717 95 360 6.1 16.5 0.00 0.00 0.00 45 1014.4
20260830214618 95 360 7.0 16.5 0.00 0.00 0.00 45 1014.4
20260830214516 95 360 7.0 16.5 0.00 0.00 0.00 45 1014.4
20260830214416 95 360 7.0 16.5 0.00 0.00 0.00 45 1014.5
20260830214321 95 360 6.1 16.5 0.00 0.00 0.00 45 1014.5
20260830214222 95 360 7.0 16.5 0.00 0.00 0.00 44 1014.5
20260830214122 95 360 7.0 16.5 0.00 0.00 0.00 46 1014.5
20260830214022 95 360 7.8 16.5 0.00 0.00 0.00 45 1014.5
20260830213924 95 360 8.7 16.5 0.00 0.00 0.00 45 1014.5
20260830213824 96 360 7.8 16.5 0.00 0.00 0.00 45 1014.5
20260830213725 96 360 7.0 16.5 0.00 0.00 0.00 46 1014.5
20260830213647 95 360 4.3 13.9 0.00 0.00 0.00 45 1014.5
20260830213527 95 360 2.6 13.9 0.00 0.00 0.00 46 1014.5
20260830213427 95 360 4.3 13.9 0.00 0.00 0.00 45 1014.5
20260830213326 95 360 5.2 17.4 0.00 0.00 0.00 45 1014.5
20260830213226 95 360 5.2 17.4 0.00 0.00 0.00 45 1014.5
20260830213127 95 360 6.1 17.4 0.00 0.00 0.00 45 1014.6
20260830213028 95 360 6.1 17.4 0.00 0.00 0.00 46 1014.6
20260830212927 95 360 7.0 17.4 0.00 0.00 0.00 45 1014.6
20260830212832 95 360 7.0 17.4 0.00 0.00 0.00 45 1014.6
20260830212732 95 360 8.7 17.4 0.00 0.00 0.00 46 1014.6
20260830212632 95 360 7.8 17.4 0.00 0.00 0.00 46 1014.7
20260830212552 95 360 7.0 17.4 0.00 0.00 0.00 45 1014.7
20260830212452 96 360 5.2 10.4 0.00 0.00 0.00 45 1014.7
20260830212331 96 360 5.2 10.4 0.00 0.00 0.00 45 1014.7
20260830212252 96 360 5.2 12.2 0.00 0.00 0.00 45 1014.8
20260830212131 96 360 5.2 12.2 0.00 0.00 0.00 46 1014.7
20260830212035 96 360 5.2 12.2 0.00 0.00 0.00 47 1014.8
20260830211916 96 360 6.1 17.4 0.00 0.00 0.00 46 1014.8
20260830211816 96 360 7.0 17.4 0.00 0.00 0.00 45 1014.8
20260830211716 96 360 7.0 17.4 0.00 0.00 0.00 45 1014.8
20260830211618 96 360 7.0 17.4 0.00 0.00 0.00 45 1014.8
20260830211517 96 360 6.1 17.4 0.00 0.00 0.00 46 1014.8
20260830211442 96 360 6.1 17.4 0.00 0.00 0.00 46 1014.8
20260830211320 96 146 7.8 17.4 0.00 0.00 0.00 46 1015.0
20260830211221 95 360 9.6 17.4 0.00 0.00 0.00 45 1015.0
20260830211121 95 360 9.6 17.4 0.00 0.00 0.00 47 1015.0
20260830211021 95 360 7.8 13.9 0.00 0.00 0.00 47 1014.9
20260830210922 95 360 6.1 14.8 0.00 0.00 0.00 47 1015.0
20260830210822 95 360 4.3 14.8 0.00 0.00 0.00 47 1015.0
20260830210727 95 360 3.5 14.8 0.00 0.00 0.00 46 1015.0
20260830210647 95 360 3.5 14.8 0.00 0.00 0.00 46 1014.9
20260830210526 95 360 4.3 16.5 0.00 0.00 0.00 47 1014.9
20260830210446 95 360 6.1 16.5 0.00 0.00 0.00 46 1015.1
20260830210326 95 360 7.8 16.5 0.00 0.00 0.00 47 1015.1
20260830210227 95 360 8.7 16.5 0.00 0.00 0.00 47 1015.1
20260830210127 95 360 10.4 16.5 0.00 0.00 0.00 47 1015.2
20260830210027 95 360 11.3 16.5 0.00 0.00 0.00 47 1015.1
20260830205931 95 360 11.3 16.5 0.00 0.00 0.00 47 1015.2
20260830205833 95 360 10.4 16.5 0.00 0.00 0.00 47 1015.1
20260830205732 95 360 10.4 14.8 0.00 0.00 0.00 47 1015.1
20260830205633 95 360 8.7 14.8 0.00 0.00 0.00 48 1015.2
20260830205553 95 360 7.0 14.8 0.00 0.00 0.00 48 1015.2
20260830205432 95 360 5.2 13.9 0.00 0.00 0.00 48 1015.2
20260830205317 94 360 3.5 13.0 0.00 0.00 0.00 48 1015.2
20260830205216 94 360 3.5 13.0 0.00 0.00 0.00 49 1015.2
20260830205117 94 360 3.5 13.0 0.00 0.00 0.00 49 1015.2
20260830205037 94 360 5.2 13.0 0.00 0.00 0.00 48 1015.2
20260830204916 94 360 6.1 13.9 0.00 0.00 0.00 47 1015.2
20260830204817 95 360 6.1 13.9 0.00 0.00 0.00 48 1015.3
20260830204717 95 360 5.2 13.9 0.00 0.00 0.00 49 1015.3
20260830204618 95 360 5.2 13.9 0.00 0.00 0.00 48 1015.3
20260830204523 95 360 5.2 13.9 0.00 0.00 0.00 49 1015.3
20260830204422 95 360 7.0 13.9 0.00 0.00 0.00 48 1015.3
20260830204323 95 360 7.0 13.9 0.00 0.00 0.00 48 1015.3
20260830204221 95 360 7.8 13.9 0.00 0.00 0.00 49 1015.4
20260830204142 95 360 7.8 13.9 0.00 0.00 0.00 49 1015.4
20260830204022 95 360 7.8 13.9 0.00 0.00 0.00 49 1015.4
20260830203923 95 360 7.8 13.9 0.00 0.00 0.00 49 1015.4
20260830203823 94 360 7.0 15.6 0.00 0.00 0.00 49 1015.4
20260830203727 94 360 7.0 19.1 0.00 0.00 0.00 49 1015.4
20260830203628 94 360 6.1 19.1 0.00 0.00 0.00 49 1015.5
20260830203527 94 360 6.1 19.1 0.00 0.00 0.00 49 1015.5
20260830203427 94 360 7.0 19.1 0.00 0.00 0.00 49 1015.5
20260830203327 94 360 7.0 19.1 0.00 0.00 0.00 49 1015.5
20260830203228 94 360 8.7 19.1 0.00 0.00 0.00 49 1015.6
20260830203129 94 360 9.6 19.1 0.00 0.00 0.00 49 1015.5
20260830203034 94 360 8.7 19.1 0.00 0.00 0.00 49 1015.5
20260830202953 94 360 7.0 19.1 0.00 0.00 0.00 50 1015.6
20260830202833 94 360 4.3 12.2 0.00 0.00 0.00 50 1015.5
20260830202734 94 360 4.3 15.6 0.00 0.00 0.00 50 1015.6
20260830202635 94 360 4.3 15.6 0.00 0.00 0.00 51 1015.6
20260830202535 94 360 4.3 15.6 0.00 0.00 0.00 51 1015.6
20260830202416 94 360 6.1 15.6 0.00 0.00 0.00 50 1015.6
20260830202320 94 360 6.1 15.6 0.00 0.00 0.00 51 1015.6
20260830202221 94 360 5.2 15.6 0.00 0.00 0.00 51 1015.6
20260830202123 94 160 5.2 15.6 0.00 0.00 0.00 51 1015.7
20260830202022 94 360 7.8 15.6 0.00 0.00 0.00 50 1015.6
20260830201922 94 360 10.4 15.6 0.00 0.00 0.00 51 1015.8
20260830201842 94 360 10.4 15.6 0.00 0.00 0.00 51 1015.7
20260830201722 94 360 8.7 14.8 0.00 0.00 0.00 50 1015.6
20260830201642 94 360 8.7 14.8 0.00 0.00 0.00 50 1015.7
20260830201541 94 360 7.8 14.8 0.00 0.00 0.00 50 1015.7
20260830201425 94 360 8.7 14.8 0.00 0.00 0.00 51 1015.7
20260830201326 94 360 7.8 14.8 0.00 0.00 0.00 51 1015.7
20260830201226 94 360 7.0 16.5 0.00 0.00 0.00 51 1015.7
20260830201126 94 360 5.2 16.5 0.00 0.00 0.00 50 1015.5
20260830201026 94 360 4.3 16.5 0.00 0.00 0.00 51 1015.6
20260830200927 94 360 5.2 16.5 0.00 0.00 0.00 51 1015.7
20260830200832 94 360 6.1 16.5 0.00 0.00 0.00 52 1015.8
20260830200732 94 360 7.8 16.5 0.00 0.00 0.00 53 1015.8
20260830200654 93 360 9.6 16.5 0.00 0.00 0.00 53 1015.8
20260830200534 93 360 9.6 16.5 0.00 0.00 0.00 52 1015.8
20260830200454 94 360 9.6 16.5 0.00 0.00 0.00 52 1015.9
20260830200334 94 360 10.4 14.8 0.00 0.00 0.00 52 1015.9
20260830200235 94 360 8.7 14.8 0.00 0.00 0.00 52 1015.9
20260830200155 94 360 7.0 14.8 0.00 0.00 0.00 52 1015.9
20260830200018 93 360 3.5 14.8 0.00 0.00 0.00 51 1015.8
20260830195918 93 360 4.3 12.2 0.00 0.00 0.00 52 1015.9
20260830195820 93 360 3.5 13.0 0.00 0.00 0.00 52 1016.0
20260830195719 93 360 4.3 13.0 0.00 0.00 0.00 51 1015.9
20260830195619 93 360 6.1 13.0 0.00 0.00 0.00 51 1015.9
20260830195519 93 360 7.8 13.0 0.00 0.00 0.00 51 1016.0
20260830195440 93 360 7.8 13.0 0.00 0.00 0.00 51 1016.1
20260830195340 94 360 7.0 13.0 0.00 0.00 0.00 51 1016.0
20260830195224 94 360 7.8 13.0 0.00 0.00 0.00 51 1016.1
20260830195124 94 360 8.7 13.0 0.00 0.00 0.00 51 1016.1
20260830195024 95 360 9.6 13.0 0.00 0.00 0.00 51 1016.1
20260830194924 95 360 7.0 14.8 0.00 0.00 0.00 51 1016.2
20260830194825 95 360 6.1 14.8 0.00 0.00 0.00 50 1016.1
20260830194725 94 360 3.5 14.8 0.00 0.00 0.00 50 1016.1
20260830194630 94 360 2.6 14.8 0.00 0.00 0.00 50 1016.1
20260830194530 94 360 4.3 14.8 0.00 0.00 0.00 52 1016.1
20260830194431 94 360 5.2 14.8 0.00 0.00 0.00 51 1016.2
20260830194331 94 360 7.0 14.8 0.00 0.00 0.00 51 1016.3
20260830194232 94 360 8.7 14.8 0.00 0.00 0.00 51 1016.2
20260830194134 94 360 8.7 14.8 0.00 0.00 0.00 51 1016.4
20260830194018 94 360 7.0 14.8 0.00 0.00 0.00 51 1016.3
20260830193919 94 360 6.1 13.0 0.00 0.00 0.00 51 1016.3
20260830193819 93 360 6.1 13.0 0.00 0.00 0.00 51 1016.2
20260830193719 93 360 6.1 13.0 0.00 0.00 0.00 51 1016.4
20260830193620 94 360 5.2 13.0 0.00 0.00 0.00 51 1016.5
20260830193520 94 360 6.1 13.0 0.00 0.00 0.00 52 1016.4
20260830193420 94 360 6.1 13.0 0.00 0.00 0.00 51 1016.5
20260830193325 94 360 7.0 13.0 0.00 0.00 0.00 52 1016.4
20260830193225 94 360 6.1 13.0 0.00 0.00 0.00 51 1016.5
20260830193126 93 360 4.3 14.8 0.00 0.00 0.00 53 1016.4
20260830193026 93 360 3.5 15.6 0.00 0.00 0.00 52 1016.4
20260830192947 93 360 3.5 15.6 0.00 0.00 0.00 52 1016.4
20260830192827 93 164 3.5 15.6 0.00 0.00 0.00 52 1016.5
20260830192727 92 115 5.2 15.6 0.00 0.00 0.00 52 1016.5
20260830192632 92 114 7.0 15.6 0.00 0.00 0.00 52 1016.6
20260830192532 92 360 9.6 15.6 0.00 0.00 0.00 52 1016.6
20260830192433 93 360 10.4 15.6 0.00 0.00 0.00 52 1016.6
20260830192354 93 360 9.6 15.6 0.00 0.00 0.00 52 1016.6
20260830192234 93 360 7.8 16.5 0.00 0.00 0.00 54 1016.6
20260830192135 93 360 5.2 16.5 0.00 0.00 0.00 53 1016.5
20260830192035 93 360 3.5 16.5 0.00 0.00 0.00 53 1016.6
20260830191919 93 360 5.2 16.5 0.00 0.00 0.00 53 1016.6
20260830191819 93 117 6.1 16.5 0.00 0.00 0.00 54 1016.6
20260830191740 92 360 7.0 16.5 0.00 0.00 0.00 53 1016.6
20260830191639 92 360 8.7 16.5 0.00 0.00 0.00 54 1016.6
20260830191518 92 360 7.8 16.5 0.00 0.00 0.00 54 1016.6
20260830191418 92 360 7.0 14.8 0.00 0.00 0.00 53 1016.7
20260830191319 93 360 4.3 11.3 0.00 0.00 0.00 53 1016.7
20260830191239 93 360 3.5 11.3 0.00 0.00 0.00 53 1016.7
20260830191123 93 360 2.6 11.3 0.00 0.00 0.00 53 1016.7
20260830191023 93 360 3.5 11.3 0.00 0.00 0.00 52 1016.8
20260830190924 93 360 5.2 11.3 0.00 0.00 0.00 53 1016.8
20260830190824 93 360 6.1 11.3 0.00 0.00 0.00 53 1016.8
20260830190724 94 360 6.1 11.3 0.00 0.00 0.00 53 1016.9
20260830190645 93 360 5.2 11.3 0.00 0.00 0.00 51 1016.7
20260830190523 93 360 4.3 14.8 0.00 0.00 0.00 51 1016.8
20260830190422 93 360 3.5 14.8 0.00 0.00 0.00 52 1016.8
20260830190326 93 360 3.5 14.8 0.00 0.00 0.00 55 1016.9
20260830190226 93 360 4.3 14.8 0.00 0.00 0.00 54 1016.8
20260830190127 92 117 5.2 14.8 0.00 0.00 0.00 55 1016.8
20260830190027 92 360 7.0 14.8 0.00 0.00 0.00 54 1016.9
20260830185927 92 360 7.0 14.8 0.00 0.00 0.00 54 1016.9
20260830185828 93 360 7.0 14.8 0.00 0.00 0.00 54 1016.9
20260830185727 93 360 5.2 14.8 0.00 0.00 0.00 54 1016.9
20260830185632 93 360 4.3 14.8 0.00 0.00 0.00 53 1016.9
20260830185533 94 360 2.6 9.6 0.00 0.00 0.00 55 1016.9
20260830185434 93 360 1.7 11.3 0.00 0.00 0.00 55 1017.0
20260830185335 93 360 1.7 11.3 0.00 0.00 0.00 55 1016.9
20260830185216 92 360 2.6 11.3 0.00 0.00 0.00 55 1017.0
20260830185116 92 360 3.5 11.3 0.00 0.00 0.00 57 1017.1
20260830185037 92 360 4.3 13.0 0.00 0.00 0.00 57 1017.0
20260830184921 92 360 5.2 13.0 0.00 0.00 0.00 57 1017.1
20260830184821 92 360 6.1 13.0 0.00 0.00 0.00 56 1017.1
20260830184720 91 360 5.2 13.0 0.00 0.00 0.00 57 1017.0
20260830184621 91 360 5.2 13.0 0.00 0.00 0.00 56 1017.1
20260830184522 91 360 4.3 13.0 0.00 0.00 0.00 56 1017.1
20260830184442 91 360 4.3 13.0 0.00 0.00 0.00 55 1017.1
20260830184322 91 360 5.2 13.0 0.00 0.00 0.00 55 1017.1
20260830184226 91 360 6.1 13.0 0.00 0.00 0.00 55 1017.1
20260830184146 91 360 6.1 13.0 0.00 0.00 0.00 55 1017.1
20260830184026 91 360 5.2 13.0 0.00 0.00 0.00 56 1017.1
20260830183927 91 360 5.2 12.2 0.00 0.00 0.00 56 1017.1
20260830183827 91 360 4.3 12.2 0.00 0.00 0.00 56 1017.1
20260830183728 91 360 5.2 13.9 0.00 0.00 0.00 55 1017.2
20260830183649 91 360 6.1 13.9 0.00 0.00 0.00 55 1017.2
20260830183532 91 360 7.0 13.9 0.00 0.00 0.00 56 1017.2
20260830183433 91 360 7.8 13.9 0.00 0.00 0.00 55 1017.2
20260830183334 91 360 7.0 13.9 0.00 0.00 0.00 56 1017.2
20260830183234 92 360 7.8 13.9 0.00 0.00 0.00 56 1017.2
20260830183135 91 360 7.0 13.9 0.00 0.00 0.00 56 1017.2
20260830183035 92 360 7.8 13.9 0.00 0.00 0.00 55 1017.3
20260830182920 92 360 7.8 13.9 0.00 0.00 0.00 55 1017.3
20260830182842 92 360 7.0 13.9 0.00 0.00 0.00 55 1017.3
20260830182720 92 360 7.0 13.0 0.00 0.00 0.00 56 1017.3
20260830182621 92 360 6.1 13.0 0.00 0.00 0.00 56 1017.3
20260830182542 92 139 7.8 13.9 0.00 0.00 0.00 56 1017.4
20260830182421 92 360 7.8 13.9 0.00 0.00 0.00 56 1017.4
20260830182342 92 360 7.8 13.9 0.00 0.00 0.00 57 1017.5
20260830182222 92 360 5.2 14.8 0.00 0.00 0.00 57 1017.4
20260830182121 92 360 4.3 14.8 0.00 0.00 0.00 56 1017.5
20260830182027 92 360 2.6 14.8 0.00 0.00 0.00 56 1017.5
20260830181927 92 360 2.6 14.8 0.00 0.00 0.00 56 1017.5
20260830181828 92 360 2.6 14.8 0.00 0.00 0.00 55 1017.5
20260830181727 93 360 5.2 14.8 0.00 0.00 0.00 55 1017.4
20260830181628 93 360 7.0 14.8 0.00 0.00 0.00 56 1017.5
20260830181549 93 360 7.0 14.8 0.00 0.00 0.00 54 1017.4
20260830181448 94 360 6.1 14.8 0.00 0.00 0.00 55 1017.4
20260830181348 94 360 3.5 9.6 0.00 0.00 0.00 55 1017.5
20260830181230 94 159 3.5 11.3 0.00 0.00 0.00 55 1017.4
20260830181131 93 360 3.5 12.2 0.00 0.00 0.00 55 1017.5
20260830181031 93 360 3.5 12.2 0.00 0.00 0.00 56 1017.5
20260830180931 92 360 4.3 12.2 0.00 0.00 0.00 56 1017.5
20260830180831 92 360 4.3 12.2 0.00 0.00 0.00 56 1017.6
20260830180729 91 360 4.3 12.2 0.00 0.00 0.00 57 1017.6
20260830180649 91 360 5.2 12.2 0.00 0.00 0.00 56 1017.7
20260830180526 91 360 7.0 12.2 0.00 0.00 0.00 57 1017.8
20260830180431 91 360 7.0 12.2 0.00 0.00 0.00 57 1017.8
20260830180352 91 360 7.0 12.2 0.00 0.00 0.00 56 1017.9
20260830180230 91 360 6.1 13.9 0.00 0.00 0.00 57 1017.9
20260830180129 91 360 7.0 13.9 0.00 0.00 0.00 58 1017.9
20260830180030 91 360 7.0 13.9 0.00 0.00 0.00 57 1017.9
20260830175930 91 360 7.0 13.9 0.00 0.00 0.00 57 1017.9
20260830175832 91 360 6.1 13.9 0.00 0.00 0.00 58 1018.0
20260830175735 90 360 4.3 13.9 0.00 0.00 0.00 56 1018.0
20260830175616 90 360 5.2 13.9 0.00 0.00 0.00 56 1018.0
20260830175516 91 196 5.2 13.9 0.00 0.00 0.00 56 1018.1
20260830175437 91 360 6.1 13.0 0.00 0.00 0.00 56 1018.0
20260830175358 91 360 5.2 12.2 0.00 0.00 0.00 56 1018.1
20260830175236 92 360 4.3 12.2 0.00 0.00 0.00 55 1018.1
20260830175156 92 360 3.5 7.8 0.00 0.00 0.00 57 1018.1
20260830175055 92 360 2.6 10.4 0.00 0.00 0.00 57 1018.1
20260830174920 92 360 3.5 10.4 0.00 0.00 0.00 57 1018.2
20260830174840 91 360 2.6 11.3 0.00 0.00 0.00 57 1018.2
20260830174719 91 360 3.5 14.8 0.00 0.00 0.00 57 1018.2
20260830174619 91 360 3.5 14.8 0.00 0.00 0.00 57 1018.2
20260830174519 91 360 2.6 14.8 0.00 0.00 0.00 58 1018.3
20260830174420 91 360 3.5 14.8 0.00 0.00 0.00 58 1018.2
20260830174320 91 360 6.1 14.8 0.00 0.00 0.00 59 1018.3
20260830174219 90 360 7.8 14.8 0.00 0.00 0.00 59 1018.3
20260830174119 90 360 7.0 14.8 0.00 0.00 0.00 58 1018.3
20260830174044 90 360 6.1 14.8 0.00 0.00 0.00 59 1018.2
20260830173923 90 360 7.0 14.8 0.00 0.00 0.00 58 1018.3
20260830173824 90 360 7.0 13.0 0.00 0.00 0.00 57 1018.3
20260830173725 90 360 6.1 13.0 0.00 0.00 0.00 57 1018.4
20260830173645 90 360 3.5 11.3 0.00 0.00 0.00 59 1018.4
20260830173524 91 360 1.7 8.7 0.00 0.00 0.00 59 1018.4
20260830173423 91 360 2.6 10.4 0.00 0.00 0.00 61 1018.4
20260830173343 90 360 4.3 10.4 0.00 0.00 0.00 60 1018.4
20260830173227 90 360 4.3 10.4 0.00 0.00 0.00 57 1018.4
20260830173127 91 180 3.5 10.4 0.00 0.00 0.00 57 1018.4
20260830173029 91 360 2.6 10.4 0.00 0.00 0.00 58 1018.4
20260830173005 91 360 2.6 10.4 0.00 0.00 0.00 59 1018.5
20260830172729 91 360 3.5 10.4 0.00 0.00 0.00 58 1018.4
20260830172634 91 360 2.6 10.4 0.00 0.00 0.00 58 1018.4
20260830172554 92 360 2.6 9.6 0.00 0.00 0.00 60 1018.4
20260830172433 91 360 1.7 9.6 0.00 0.00 0.00 61 1018.5
20260830172353 91 360 2.6 9.6 0.00 0.00 0.00 61 1018.4
20260830172233 91 360 3.5 9.6 0.00 0.00 0.00 61 1018.5
20260830172134 90 360 4.3 11.3 0.00 0.00 0.00 61 1018.4
20260830172034 90 180 5.2 11.3 0.00 0.00 0.00 61 1018.6
20260830171919 90 360 5.2 11.3 0.00 0.00 0.00 61 1018.5
20260830171819 90 360 6.1 11.3 0.00 0.00 0.00 60 1018.6
20260830171720 90 360 6.1 11.3 0.00 0.00 0.00 61 1018.5
20260830171641 90 360 6.1 11.3 0.00 0.00 0.00 61 1018.6
20260830171521 90 360 6.1 11.3 0.00 0.00 0.00 61 1018.6
20260830171421 89 360 7.0 11.3 0.00 0.00 0.00 62 1018.6
20260830171321 90 360 6.1 11.3 0.00 0.00 0.00 62 1018.6
20260830171226 89 360 5.2 11.3 0.00 0.00 0.00 62 1018.7
20260830171127 89 360 4.3 10.4 0.00 0.00 0.00 62 1018.6
20260830171028 89 360 4.3 10.4 0.00 0.00 0.00 62 1018.6
20260830170928 89 360 4.3 10.4 0.00 0.00 0.00 61 1018.6
20260830170828 89 360 2.6 10.4 0.00 0.00 0.00 62 1018.7
20260830170729 89 360 1.7 10.4 0.00 0.00 0.00 62 1018.7
20260830170630 89 360 2.6 10.4 0.00 0.00 0.00 62 1018.7
20260830170534 89 360 4.3 10.4 0.00 0.00 0.00 63 1018.7
20260830170455 89 360 6.1 10.4 0.00 0.00 0.00 62 1018.7
20260830170354 89 360 6.1 10.4 0.00 0.00 0.00 60 1018.7
20260830170254 90 360 4.3 9.6 0.00 0.00 0.00 60 1018.7
20260830170133 90 360 3.5 9.6 0.00 0.00 0.00 60 1018.8
20260830170034 91 360 2.6 7.8 0.00 0.00 0.00 60 1018.8
20260830165934 91 360 1.7 7.8 0.00 0.00 0.00 60 1018.8
20260830165820 90 153 2.6 10.4 0.00 0.00 0.00 61 1018.7
20260830165719 90 360 2.6 10.4 0.00 0.00 0.00 62 1018.7
20260830165619 90 360 2.6 10.4 0.00 0.00 0.00 62 1018.7
20260830165520 90 360 2.6 10.4 0.00 0.00 0.00 63 1018.8
20260830165440 89 360 3.5 10.4 0.00 0.00 0.00 63 1018.8
20260830165320 89 360 3.5 10.4 0.00 0.00 0.00 63 1018.8
20260830165220 89 360 4.3 10.4 0.00 0.00 0.00 63 1018.8
20260830165124 89 360 4.3 10.4 0.00 0.00 0.00 62 1018.8
20260830165024 89 360 5.2 10.4 0.00 0.00 0.00 62 1018.9
20260830164925 89 360 3.5 10.4 0.00 0.00 0.00 62 1018.8
20260830164846 89 360 3.5 10.4 0.00 0.00 0.00 62 1019.0
20260830164725 90 360 3.5 10.4 0.00 0.00 0.00 62 1018.9
20260830164626 90 360 4.3 10.4 0.00 0.00 0.00 63 1018.8
20260830164526 89 360 5.2 10.4 0.00 0.00 0.00 63 1018.9
20260830164430 89 360 5.2 9.6 0.00 0.00 0.00 62 1018.9
20260830164331 90 360 3.5 9.6 0.00 0.00 0.00 62 1018.9
20260830164232 90 360 1.7 9.6 0.00 0.00 0.00 61 1018.9
20260830164132 90 360 1.7 9.6 0.00 0.00 0.00 62 1018.8
20260830164033 90 360 1.7 9.6 0.00 0.00 0.00 63 1018.9
20260830163932 90 360 2.6 9.6 0.00 0.00 0.00 65 1018.8
20260830163833 89 360 2.6 9.6 0.00 0.00 0.00 65 1018.9
20260830163752 89 360 4.3 9.6 0.00 0.00 0.00 64 1018.9
20260830163616 89 360 4.3 9.6 0.00 0.00 0.00 63 1019.0
20260830163517 89 360 5.2 9.6 0.00 0.00 0.00 63 1019.0
20260830163417 89 360 4.3 9.6 0.00 0.00 0.00 63 1019.1
20260830163338 89 360 2.6 9.6 0.00 0.00 0.00 63 1019.0
20260830163217 89 360 2.6 13.9 0.00 0.00 0.00 63 1019.0
20260830163118 89 360 1.7 13.9 0.00 0.00 0.00 65 1019.0
20260830163038 89 360 1.7 13.9 0.00 0.00 0.00 65 1019.0
20260830162922 88 360 3.5 13.9 0.00 0.00 0.00 65 1018.9
20260830162844 88 360 5.2 13.9 0.00 0.00 0.00 65 1019.0
20260830162721 87 360 7.0 13.9 0.00 0.00 0.00 64 1019.0
20260830162622 88 360 6.1 13.9 0.00 0.00 0.00 64 1018.9
20260830162523 88 360 4.3 13.9 0.00 0.00 0.00 65 1018.9
20260830162423 87 360 4.3 13.9 0.00 0.00 0.00 65 1018.9
20260830162323 87 360 7.0 13.9 0.00 0.00 0.00 65 1018.9
20260830162228 87 360 7.8 13.9 0.00 0.00 0.00 64 1018.9
20260830162129 87 360 7.0 13.9 0.00 0.00 0.00 65 1019.0
20260830162029 87 360 3.5 9.6 0.00 0.00 0.00 65 1019.0
20260830161930 88 360 1.7 9.6 0.00 0.00 0.00 65 1018.9
20260830161831 87 178 1.7 9.6 0.00 0.00 0.00 64 1019.0
20260830161731 87 360 2.6 13.0 0.00 0.00 0.00 64 1018.9
20260830161617 87 360 4.3 13.0 0.00 0.00 0.00 64 1018.9
20260830161537 87 360 4.3 13.0 0.00 0.00 0.00 64 1019.0
20260830161416 88 360 4.3 13.0 0.00 0.00 0.00 65 1019.0
20260830161317 88 360 3.5 13.0 0.00 0.00 0.00 66 1018.9
20260830161218 87 360 3.5 12.2 0.00 0.00 0.00 66 1018.9
20260830161118 87 360 5.2 12.2 0.00 0.00 0.00 67 1019.0
20260830161018 87 360 5.2 12.2 0.00 0.00 0.00 66 1018.9
20260830160918 87 360 4.3 12.2 0.00 0.00 0.00 67 1019.0
20260830160822 87 360 4.3 12.2 0.00 0.00 0.00 67 1019.0
20260830160722 87 360 6.1 12.2 0.00 0.00 0.00 66 1019.0
20260830160623 87 360 7.0 12.2 0.00 0.00 0.00 64 1019.0
20260830160524 87 360 7.8 12.2 0.00 0.00 0.00 64 1019.1
20260830160424 87 360 6.1 12.2 0.00 0.00 0.00 64 1019.0
20260830160326 88 360 4.3 10.4 0.00 0.00 0.00 65 1019.0
20260830160230 88 360 3.5 10.4 0.00 0.00 0.00 66 1019.0
20260830160131 87 360 5.2 10.4 0.00 0.00 0.00 66 1019.0
20260830160031 88 360 5.2 10.4 0.00 0.00 0.00 65 1018.9
20260830155952 88 360 6.1 10.4 0.00 0.00 0.00 65 1018.9
20260830155832 88 360 5.2 10.4 0.00 0.00 0.00 64 1018.9
20260830155730 88 360 4.3 10.4 0.00 0.00 0.00 64 1018.8
20260830155632 88 360 2.6 9.6 0.00 0.00 0.00 66 1018.8
20260830155553 88 360 2.6 9.6 0.00 0.00 0.00 66 1018.8
20260830155456 88 360 1.7 9.6 0.00 0.00 0.00 66 1018.8
20260830155356 88 360 3.5 9.6 0.00 0.00 0.00 67 1018.8
20260830155255 88 360 3.5 9.6 0.00 0.00 0.00 67 1018.9
20260830155134 88 360 5.2 9.6 0.00 0.00 0.00 66 1018.8
20260830155034 88 360 3.5 9.6 0.00 0.00 0.00 66 1018.8
20260830154935 88 360 3.5 9.6 0.00 0.00 0.00 66 1018.8
20260830154816 88 360 3.5 7.8 0.00 0.00 0.00 66 1018.7
20260830154735 88 360 3.5 7.8 0.00 0.00 0.00 67 1018.8
20260830154620 88 360 2.6 7.8 0.00 0.00 0.00 67 1018.7
20260830154520 87 360 2.6 8.7 0.00 0.00 0.00 68 1018.7
20260830154421 87 360 2.6 8.7 0.00 0.00 0.00 68 1018.7
20260830154322 87 360 2.6 8.7 0.00 0.00 0.00 67 1018.7
20260830154243 87 360 2.6 8.7 0.00 0.00 0.00 67 1018.7
20260830154141 87 360 3.5 8.7 0.00 0.00 0.00 69 1018.8
20260830154021 86 360 4.3 8.7 0.00 0.00 0.00 69 1018.7
20260830153926 86 360 5.2 8.7 0.00 0.00 0.00 70 1018.8
20260830153846 86 360 5.2 8.7 0.00 0.00 0.00 70 1018.8
20260830153726 86 360 3.5 8.7 0.00 0.00 0.00 71 1018.8
20260830153626 86 360 3.5 8.7 0.00 0.00 0.00 71 1018.8
20260830153526 86 360 2.6 8.7 0.00 0.00 0.00 71 1018.8
20260830153427 85 360 3.5 11.3 0.00 0.00 0.00 71 1018.8
20260830153327 85 360 3.5 11.3 0.00 0.00 0.00 72 1018.8
20260830153232 85 360 4.3 11.3 0.00 0.00 0.00 71 1018.8
20260830153133 85 360 5.2 11.3 0.00 0.00 0.00 70 1018.8
20260830153032 85 360 5.2 11.3 0.00 0.00 0.00 70 1018.8
20260830152953 85 360 6.1 11.3 0.00 0.00 0.00 70 1018.8
20260830152833 85 360 5.2 11.3 0.00 0.00 0.00 71 1018.8
20260830152732 85 360 4.3 11.3 0.00 0.00 0.00 71 1018.7
20260830152651 85 360 4.3 11.3 0.00 0.00 0.00 70 1018.7
20260830152530 85 360 3.5 11.3 0.00 0.00 0.00 72 1018.8
20260830152434 85 360 3.5 11.3 0.00 0.00 0.00 71 1018.7
20260830152354 84 360 4.3 11.3 0.00 0.00 0.00 71 1018.8
20260830152233 84 360 4.3 11.3 0.00 0.00 0.00 72 1018.8
20260830152134 84 360 3.5 11.3 0.00 0.00 0.00 73 1018.7
20260830152032 84 360 4.3 11.3 0.00 0.00 0.00 73 1018.7
20260830151932 84 360 4.3 11.3 0.00 0.00 0.00 73 1018.7
20260830151832 84 360 4.3 11.3 0.00 0.00 0.00 73 1018.6
20260830151753 84 360 5.2 10.4 0.00 0.00 0.00 74 1018.6
20260830151631 84 360 4.3 10.4 0.00 0.00 0.00 74 1018.7
20260830151516 83 360 5.2 10.4 0.00 0.00 0.00 74 1018.6
20260830151416 83 360 4.3 10.4 0.00 0.00 0.00 74 1018.7
20260830151317 83 360 5.2 10.4 0.00 0.00 0.00 74 1018.6
20260830151217 83 360 4.3 10.4 0.00 0.00 0.00 75 1018.6
20260830151137 83 360 4.3 10.4 0.00 0.00 0.00 75 1018.7
20260830151017 83 360 4.3 10.4 0.00 0.00 0.00 74 1018.7
20260830150922 83 360 3.5 9.6 0.00 0.00 0.00 74 1018.7
20260830150822 83 360 4.3 9.6 0.00 0.00 0.00 74 1018.7
20260830150723 83 360 4.3 9.6 0.00 0.00 0.00 74 1018.7
20260830150644 83 360 4.3 11.3 0.00 0.00 0.00 73 1018.7
20260830150523 84 360 3.5 11.3 0.00 0.00 0.00 74 1018.7
20260830150424 83 360 3.5 11.3 0.00 0.00 0.00 75 1018.6
20260830150325 83 360 2.6 11.3 0.00 0.00 0.00 75 1018.6
20260830150230 83 360 3.5 11.3 0.00 0.00 0.00 75 1018.7
20260830150131 83 360 4.3 11.3 0.00 0.00 0.00 76 1018.6
20260830150052 83 360 4.3 12.2 0.00 0.00 0.00 75 1018.6
20260830145931 83 360 4.3 12.2 0.00 0.00 0.00 76 1018.6
20260830145853 83 360 2.6 12.2 0.00 0.00 0.00 76 1018.6
20260830145730 83 360 3.5 12.2 0.00 0.00 0.00 76 1018.7
20260830145630 83 360 3.5 12.2 0.00 0.00 0.00 75 1018.6
20260830145531 83 360 3.5 12.2 0.00 0.00 0.00 75 1018.6
20260830145451 83 360 5.2 12.2 0.00 0.00 0.00 76 1018.8
20260830145335 83 360 4.3 12.2 0.00 0.00 0.00 76 1018.7
20260830145235 83 360 5.2 12.2 0.00 0.00 0.00 76 1018.7
20260830145135 83 360 4.3 9.6 0.00 0.00 0.00 76 1018.7
20260830145056 83 360 4.3 9.6 0.00 0.00 0.00 76 1018.6
20260830144935 84 360 3.5 9.6 0.00 0.00 0.00 76 1018.7
20260830144816 83 360 4.3 9.6 0.00 0.00 0.00 77 1018.6
20260830144720 83 360 4.3 11.3 0.00 0.00 0.00 77 1018.6
20260830144620 83 360 5.2 11.3 0.00 0.00 0.00 78 1018.6
20260830144521 83 360 5.2 11.3 0.00 0.00 0.00 77 1018.6
20260830144441 83 360 4.3 11.3 0.00 0.00 0.00 77 1018.6
20260830144321 82 360 4.3 11.3 0.00 0.00 0.00 77 1018.5
20260830144222 82 360 5.2 11.3 0.00 0.00 0.00 77 1018.6
20260830144122 82 360 5.2 11.3 0.00 0.00 0.00 77 1018.6
20260830144026 82 360 5.2 11.3 0.00 0.00 0.00 77 1018.6
20260830143927 82 360 6.1 11.3 0.00 0.00 0.00 77 1018.6
20260830143828 83 360 5.2 11.3 0.00 0.00 0.00 77 1018.6
20260830143730 83 360 5.2 11.3 0.00 0.00 0.00 77 1018.7
20260830143630 83 360 3.5 9.6 0.00 0.00 0.00 77 1018.6
20260830143530 83 360 2.6 9.6 0.00 0.00 0.00 78 1018.7
20260830143430 83 360 2.6 9.6 0.00 0.00 0.00 77 1018.6
20260830143335 83 360 2.6 9.6 0.00 0.00 0.00 77 1018.7
20260830143235 83 360 2.6 9.6 0.00 0.00 0.00 78 1018.7
20260830143156 83 360 2.6 9.6 0.00 0.00 0.00 78 1018.7
20260830143056 82 360 3.5 9.6 0.00 0.00 0.00 79 1018.7
20260830142955 82 360 2.6 9.6 0.00 0.00 0.00 79 1018.8
20260830142836 82 360 2.6 7.0 0.00 0.00 0.00 79 1018.7
20260830142717 82 360 1.7 7.0 0.00 0.00 0.00 80 1018.7
20260830142618 82 360 1.7 7.0 0.00 0.00 0.00 80 1018.8
20260830142542 82 360 2.6 7.0 0.00 0.00 0.00 80 1018.8
20260830142422 82 360 3.5 7.0 0.00 0.00 0.00 80 1018.9
20260830142323 82 360 3.5 7.8 0.00 0.00 0.00 80 1018.7
20260830142223 82 360 2.6 9.6 0.00 0.00 0.00 80 1018.9
20260830142124 82 360 1.7 9.6 0.00 0.00 0.00 80 1018.8
20260830142024 82 360 2.6 9.6 0.00 0.00 0.00 81 1018.8
20260830141924 81 360 2.6 9.6 0.00 0.00 0.00 81 1018.8
20260830141829 81 360 3.5 9.6 0.00 0.00 0.00 81 1018.8
20260830141730 81 360 5.2 9.6 0.00 0.00 0.00 81 1018.7
20260830141630 81 360 4.3 9.6 0.00 0.00 0.00 81 1018.7
20260830141530 81 360 5.2 9.6 0.00 0.00 0.00 80 1018.7
20260830141431 81 360 5.2 9.6 0.00 0.00 0.00 80 1018.7
20260830141353 81 360 3.5 9.6 0.00 0.00 0.00 80 1018.7
20260830141215 81 184 2.6 9.6 0.00 0.00 0.00 82 1018.6
20260830141116 81 360 1.7 9.6 0.00 0.00 0.00 82 1018.6
20260830141017 81 360 2.6 9.6 0.00 0.00 0.00 82 1018.6
20260830140917 80 360 4.3 11.3 0.00 0.00 0.00 82 1018.6
20260830140818 80 360 5.2 11.3 0.00 0.00 0.00 82 1018.7
20260830140720 80 360 4.3 11.3 0.00 0.00 0.00 82 1018.6
20260830140620 80 360 3.5 11.3 0.00 0.00 0.00 82 1018.6
20260830140524 80 360 3.5 11.3 0.00 0.00 0.00 82 1018.7
20260830140445 80 360 3.5 11.3 0.00 0.00 0.00 83 1018.6
20260830140325 80 360 4.3 11.3 0.00 0.00 0.00 83 1018.6
20260830140226 80 360 4.3 11.3 0.00 0.00 0.00 82 1018.6
20260830140127 80 360 5.2 11.3 0.00 0.00 0.00 82 1018.5
20260830140026 80 360 4.3 9.6 0.00 0.00 0.00 82 1018.4
20260830135927 80 360 4.3 9.6 0.00 0.00 0.00 82 1018.5
20260830135853 80 360 4.3 9.6 0.00 0.00 0.00 82 1018.4
20260830135730 80 360 3.5 9.6 0.00 0.00 0.00 82 1018.4
20260830135630 80 360 3.5 9.6 0.00 0.00 0.00 82 1018.4
20260830135530 80 360 3.5 7.0 0.00 0.00 0.00 83 1018.4
20260830135431 80 360 2.6 8.7 0.00 0.00 0.00 83 1018.4
20260830135352 80 360 2.6 8.7 0.00 0.00 0.00 83 1018.5
20260830135232 80 360 3.5 8.7 0.00 0.00 0.00 83 1018.4
20260830135116 80 360 3.5 8.7 0.00 0.00 0.00 83 1018.4
20260830135016 80 360 3.5 9.6 0.00 0.00 0.00 83 1018.4
20260830134917 80 360 2.6 9.6 0.00 0.00 0.00 83 1018.4
20260830134818 79 360 1.7 9.6 0.00 0.00 0.00 83 1018.3
20260830134718 79 360 1.7 9.6 0.00 0.00 0.00 83 1018.3
20260830134619 79 360 2.6 9.6 0.00 0.00 0.00 84 1018.4
20260830134524 79 360 3.5 9.6 0.00 0.00 0.00 83 1018.4
20260830134425 79 360 3.5 9.6 0.00 0.00 0.00 83 1018.4
20260830134325 79 360 3.5 9.6 0.00 0.00 0.00 83 1018.4
20260830134227 79 360 3.5 9.6 0.00 0.00 0.00 84 1018.3
20260830134128 79 360 2.6 7.0 0.00 0.00 0.00 84 1018.4
20260830134028 79 360 2.6 7.0 0.00 0.00 0.00 84 1018.4
20260830133926 79 360 1.7 4.3 0.00 0.00 0.00 84 1018.3
20260830133851 79 360 1.7 4.3 0.00 0.00 0.00 84 1018.4
20260830133731 79 360 2.6 4.3 0.00 0.00 0.00 84 1018.4
20260830133631 79 360 2.6 4.3 0.00 0.00 0.00 84 1018.3
20260830133532 79 360 1.7 4.3 0.00 0.00 0.00 84 1018.3
20260830133432 79 360 1.7 4.3 0.00 0.00 0.00 84 1018.3
20260830133333 79 360 1.7 4.3 0.00 0.00 0.00 85 1018.3
20260830133218 79 360 1.7 4.3 0.00 0.00 0.00 85 1018.3
20260830133138 79 360 2.6 4.3 0.00 0.00 0.00 85 1018.2
20260830133038 78 360 1.7 4.3 0.00 0.00 0.00 85 1018.2
20260830132917 78 360 2.6 4.3 0.00 0.00 0.00 85 1018.3
20260830132818 78 360 1.7 4.3 0.00 0.00 0.00 85 1018.2
20260830132717 78 360 1.7 4.3 0.00 0.00 0.00 85 1018.3
20260830132619 78 360 1.7 4.3 0.00 0.00 0.00 85 1018.2
20260830132518 78 360 0.9 3.5 0.00 0.00 0.00 86 1018.2
20260830132443 78 360 0.9 3.5 0.00 0.00 0.00 86 1018.2
20260830132321 78 360 0.0 3.5 0.00 0.00 0.00 86 1018.2
20260830132222 78 360 0.9 3.5 0.00 0.00 0.00 86 1018.2
20260830132123 78 360 0.9 3.5 0.00 0.00 0.00 86 1018.1
20260830132044 78 360 0.9 3.5 0.00 0.00 0.00 86 1018.1
20260830131923 78 360 1.7 3.5 0.00 0.00 0.00 86 1018.1
20260830131823 78 360 1.7 3.5 0.00 0.00 0.00 86 1018.1
20260830131722 77 360 0.9 2.6 0.00 0.00 0.00 86 1018.1
20260830131627 77 360 0.9 2.6 0.00 0.00 0.00 87 1018.1
20260830131527 77 360 0.9 2.6 0.00 0.00 0.00 87 1018.0
20260830131427 77 360 0.0 2.6 0.00 0.00 0.00 87 1018.0
20260830131348 77 360 0.0 2.6 0.00 0.00 0.00 88 1018.1
20260830131228 77 360 0.0 2.6 0.00 0.00 0.00 88 1018.1
20260830131128 77 360 0.9 2.6 0.00 0.00 0.00 88 1018.1
20260830131029 77 360 0.9 2.6 0.00 0.00 0.00 88 1018.1
20260830130933 76 360 0.9 2.6 0.00 0.00 0.00 88 1018.1
20260830130833 76 360 0.9 2.6 0.00 0.00 0.00 88 1018.0
20260830130734 76 360 0.9 1.7 0.00 0.00 0.00 88 1018.1
20260830130654 76 360 0.9 1.7 0.00 0.00 0.00 88 1018.1
20260830130533 76 360 0.9 1.7 0.00 0.00 0.00 88 1018.1
20260830130433 76 360 0.9 4.3 0.00 0.00 0.00 89 1018.1
20260830130317 76 360 0.0 4.3 0.00 0.00 0.00 89 1018.1
20260830130217 76 360 0.9 4.3 0.00 0.00 0.00 89 1018.0
20260830130118 76 360 0.9 4.3 0.00 0.00 0.00 89 1018.1
20260830130019 76 360 0.9 4.3 0.00 0.00 0.00 89 1018.0
20260830125940 75 360 0.9 4.3 0.00 0.00 0.00 89 1018.0
20260830125819 75 360 0.9 3.5 0.00 0.00 0.00 89 1018.0
20260830125718 75 196 0.9 3.5 0.00 0.00 0.00 89 1018.1
20260830125619 75 360 0.9 3.5 0.00 0.00 0.00 89 1018.0
20260830125524 75 360 0.9 1.7 0.00 0.00 0.00 89 1018.0
20260830125445 75 360 0.9 2.6 0.00 0.00 0.00 89 1018.0
20260830125344 75 360 0.9 2.6 0.00 0.00 0.00 89 1018.0
20260830125225 75 360 0.9 2.6 0.00 0.00 0.00 89 1018.0
20260830125126 75 360 0.9 2.6 0.00 0.00 0.00 89 1018.0
20260830125027 75 360 0.9 2.6 0.00 0.00 0.00 89 1018.0
20260830124928 75 360 0.9 2.6 0.00 0.00 0.00 89 1018.0
20260830124847 75 360 0.9 2.6 0.00 0.00 0.00 89 1018.0
20260830124731 75 360 1.7 2.6 0.00 0.00 0.00 89 1018.0
20260830124632 75 360 1.7 2.6 0.00 0.00 0.00 89 1018.0
20260830124532 75 360 0.9 2.6 0.00 0.00 0.00 89 1018.0
20260830124435 75 360 0.9 2.6 0.00 0.00 0.00 89 1018.0
20260830124335 75 360 0.9 2.6 0.00 0.00 0.00 89 1017.9
20260830124216 75 360 0.9 2.6 0.00 0.00 0.00 89 1018.0
20260830124121 75 360 1.7 2.6 0.00 0.00 0.00 89 1018.0
20260830124022 75 360 1.7 2.6 0.00 0.00 0.00 89 1018.0
20260830123922 75 360 0.9 2.6 0.00 0.00 0.00 89 1018.1
20260830123822 75 360 0.9 2.6 0.00 0.00 0.00 89 1018.0
20260830123743 74 360 0.9 2.6 0.00 0.00 0.00 89 1018.0
20260830123623 75 360 0.0 3.5 0.00 0.00 0.00 89 1018.0
20260830123525 74 360 0.0 3.5 0.00 0.00 0.00 89 1018.0
20260830123430 74 360 0.9 3.5 0.00 0.00 0.00 89 1018.0
20260830123330 74 360 0.9 3.5 0.00 0.00 0.00 89 1018.0
20260830123231 74 360 1.7 3.5 0.00 0.00 0.00 89 1018.0
20260830123131 74 360 1.7 3.5 0.00 0.00 0.00 89 1018.0
20260830123031 74 360 1.7 3.5 0.00 0.00 0.00 89 1017.9
20260830122931 74 360 1.7 3.5 0.00 0.00 0.00 89 1018.0
20260830122817 74 360 1.7 3.5 0.00 0.00 0.00 89 1017.9
20260830122737 74 360 1.7 3.5 0.00 0.00 0.00 89 1017.8
20260830122617 74 360 1.7 3.5 0.00 0.00 0.00 88 1017.9
20260830122538 74 360 1.7 3.5 0.00 0.00 0.00 88 1017.9
20260830122416 74 360 1.7 3.5 0.00 0.00 0.00 88 1017.9
20260830122318 74 360 2.6 3.5 0.00 0.00 0.00 88 1017.9
20260830122216 75 360 2.6 3.5 0.00 0.00 0.00 88 1017.9
20260830122137 75 360 2.6 3.5 0.00 0.00 0.00 88 1017.7
20260830122021 75 360 1.7 3.5 0.00 0.00 0.00 88 1017.7
20260830121920 75 360 1.7 3.5 0.00 0.00 0.00 88 1017.7
20260830121821 75 360 1.7 2.6 0.00 0.00 0.00 88 1017.7
20260830121721 75 360 0.9 2.6 0.00 0.00 0.00 88 1017.6
20260830121621 75 360 1.7 2.6 0.00 0.00 0.00 88 1017.6
20260830121523 75 360 1.7 2.6 0.00 0.00 0.00 88 1017.6
20260830121423 75 360 1.7 4.3 0.00 0.00 0.00 88 1017.6
20260830121348 75 360 0.9 4.3 0.00 0.00 0.00 88 1017.6
20260830121247 75 360 0.9 4.3 0.00 0.00 0.00 88 1017.6
20260830121127 75 360 0.9 4.3 0.00 0.00 0.00 88 1017.6
20260830121028 75 360 0.9 4.3 0.00 0.00 0.00 89 1017.5
20260830120948 75 360 0.9 4.3 0.00 0.00 0.00 89 1017.5
20260830120827 75 360 0.9 4.3 0.00 0.00 0.00 89 1017.5
20260830120748 75 360 1.7 4.3 0.00 0.00 0.00 88 1017.5
20260830120627 75 360 1.7 4.3 0.00 0.00 0.00 88 1017.5
20260830120548 75 360 1.7 4.3 0.00 0.00 0.00 88 1017.5
20260830120433 75 360 1.7 2.6 0.00 0.00 0.00 88 1017.5
20260830120334 75 360 0.9 2.6 0.00 0.00 0.00 88 1017.5
20260830120235 75 360 0.9 2.6 0.00 0.00 0.00 88 1017.5
20260830120135 75 360 0.9 2.6 0.00 0.00 0.00 88 1017.5
20260830120035 75 360 0.9 2.6 0.00 0.00 0.00 88 1017.5
20260830115935 75 360 1.7 3.5 0.00 0.00 0.00 88 1017.4
20260830115821 75 360 1.7 3.5 0.00 0.00 0.00 88 1017.5
20260830115721 75 360 1.7 3.5 0.00 0.00 0.00 88 1017.5
20260830115622 75 360 1.7 3.5 0.00 0.00 0.00 88 1017.5
20260830115521 75 360 1.7 3.5 0.00 0.00 0.00 88 1017.5
20260830115420 75 360 1.7 3.5 0.00 0.00 0.00 88 1017.5
20260830115321 75 360 1.7 3.5 0.00 0.00 0.00 88 1017.5
20260830115222 75 360 1.7 3.5 0.00 0.00 0.00 88 1017.5
20260830115126 75 360 1.7 3.5 0.00 0.00 0.00 88 1017.4
20260830115027 75 360 1.7 2.6 0.00 0.00 0.00 88 1017.5
20260830114926 75 360 1.7 3.5 0.00 0.00 0.00 87 1017.5
20260830114827 75 360 1.7 3.5 0.00 0.00 0.00 88 1017.5
20260830114727 75 360 1.7 3.5 0.00 0.00 0.00 87 1017.6
20260830114627 75 360 0.9 3.5 0.00 0.00 0.00 87 1017.5
20260830114528 75 360 1.7 3.5 0.00 0.00 0.00 87 1017.5
20260830114432 75 360 1.7 3.5 0.00 0.00 0.00 87 1017.5
20260830114332 75 360 1.7 3.5 0.00 0.00 0.00 87 1017.5
20260830114231 75 360 1.7 3.5 0.00 0.00 0.00 87 1017.5
20260830114132 75 360 1.7 3.5 0.00 0.00 0.00 87 1017.5
20260830114053 75 360 1.7 3.5 0.00 0.00 0.00 87 1017.5
20260830113932 75 360 0.9 3.5 0.00 0.00 0.00 87 1017.5
20260830113853 75 360 0.9 3.5 0.00 0.00 0.00 87 1017.5
20260830113717 75 360 0.9 5.2 0.00 0.00 0.00 87 1017.5
20260830113638 75 360 0.9 5.2 0.00 0.00 0.00 87 1017.5
20260830113517 75 360 0.9 5.2 0.00 0.00 0.00 87 1017.4
20260830113418 75 360 0.9 5.2 0.00 0.00 0.00 87 1017.4
20260830113320 75 360 0.9 5.2 0.00 0.00 0.00 87 1017.4
20260830113220 75 360 1.7 5.2 0.00 0.00 0.00 87 1017.4
20260830113120 75 360 1.7 5.2 0.00 0.00 0.00 87 1017.4
20260830113026 75 360 1.7 5.2 0.00 0.00 0.00 87 1017.5
20260830112927 75 360 2.6 5.2 0.00 0.00 0.00 87 1017.5
20260830112828 75 360 2.6 5.2 0.00 0.00 0.00 87 1017.4
20260830112727 75 360 2.6 5.2 0.00 0.00 0.00 87 1017.4
20260830112627 75 360 2.6 4.3 0.00 0.00 0.00 87 1017.4
20260830112548 75 360 1.7 4.3 0.00 0.00 0.00 87 1017.3
20260830112428 75 360 1.7 4.3 0.00 0.00 0.00 87 1017.3
20260830112329 75 360 0.9 4.3 0.00 0.00 0.00 87 1017.3
20260830112232 75 360 0.9 4.3 0.00 0.00 0.00 87 1017.4
20260830112132 75 360 0.9 4.3 0.00 0.00 0.00 87 1017.3
20260830112052 75 360 1.7 4.3 0.00 0.00 0.00 86 1017.3
20260830111932 75 360 2.6 4.3 0.00 0.00 0.00 86 1017.3
20260830111833 75 360 1.7 4.3 0.00 0.00 0.00 86 1017.3
20260830111731 75 360 1.7 3.5 0.00 0.00 0.00 86 1017.3
20260830111632 75 360 0.9 3.5 0.00 0.00 0.00 86 1017.3
20260830111516 75 360 1.7 3.5 0.00 0.00 0.00 86 1017.3
20260830111437 75 360 1.7 3.5 0.00 0.00 0.00 86 1017.3
20260830111317 75 360 1.7 3.5 0.00 0.00 0.00 86 1017.2
20260830111217 75 360 1.7 3.5 0.00 0.00 0.00 86 1017.3
20260830111138 75 360 1.7 3.5 0.00 0.00 0.00 86 1017.3
20260830111018 75 360 1.7 3.5 0.00 0.00 0.00 86 1017.3
20260830110918 75 360 1.7 3.5 0.00 0.00 0.00 86 1017.3
20260830110817 75 360 1.7 3.5 0.00 0.00 0.00 86 1017.3
20260830110721 75 360 0.9 3.5 0.00 0.00 0.00 86 1017.3
20260830110642 75 360 0.9 3.5 0.00 0.00 0.00 86 1017.3
20260830110516 75 360 0.9 2.6 0.00 0.00 0.00 86 1017.3
20260830110416 75 360 0.9 2.6 0.00 0.00 0.00 86 1017.3
20260830110316 76 360 0.9 2.6 0.00 0.00 0.00 86 1017.3
20260830110217 76 360 0.9 2.6 0.00 0.00 0.00 86 1017.2
20260830110118 76 360 0.9 4.3 0.00 0.00 0.00 86 1017.2
20260830110022 76 360 0.0 4.3 0.00 0.00 0.00 86 1017.3
20260830105923 76 360 0.9 4.3 0.00 0.00 0.00 86 1017.2
20260830105826 76 360 0.9 4.3 0.00 0.00 0.00 86 1017.2
20260830105726 76 360 1.7 4.3 0.00 0.00 0.00 86 1017.1
20260830105626 76 360 1.7 4.3 0.00 0.00 0.00 86 1017.2
20260830105526 76 360 1.7 4.3 0.00 0.00 0.00 86 1017.2
20260830105431 76 360 1.7 5.2 0.00 0.00 0.00 86 1017.2
20260830105331 75 360 2.6 5.2 0.00 0.00 0.00 86 1017.2
20260830105232 76 360 1.7 5.2 0.00 0.00 0.00 86 1017.2
20260830105133 76 360 1.7 5.2 0.00 0.00 0.00 85 1017.1
20260830105034 76 360 1.7 7.0 0.00 0.00 0.00 85 1017.1
20260830104933 76 360 1.7 7.0 0.00 0.00 0.00 85 1017.0
20260830104854 76 360 1.7 7.0 0.00 0.00 0.00 85 1017.1
20260830104716 76 360 2.6 7.0 0.00 0.00 0.00 85 1017.0
20260830104635 76 360 2.6 7.0 0.00 0.00 0.00 85 1017.1
20260830104517 76 360 1.7 7.0 0.00 0.00 0.00 85 1017.1
20260830104417 76 360 1.7 7.0 0.00 0.00 0.00 85 1017.0
20260830104317 76 200 2.6 7.0 0.00 0.00 0.00 85 1017.1
20260830104218 76 360 2.6 7.0 0.00 0.00 0.00 85 1017.2
20260830104119 76 360 2.6 7.0 0.00 0.00 0.00 85 1017.1
20260830104024 76 360 1.7 5.2 0.00 0.00 0.00 85 1017.2
20260830103925 76 360 1.7 4.3 0.00 0.00 0.00 85 1017.1
20260830103826 76 225 0.9 4.3 0.00 0.00 0.00 85 1017.2
20260830103747 76 225 1.7 4.3 0.00 0.00 0.00 85 1017.1
20260830103626 76 360 1.7 4.3 0.00 0.00 0.00 85 1017.1
20260830103526 76 360 1.7 4.3 0.00 0.00 0.00 85 1017.1
20260830103427 76 360 0.9 4.3 0.00 0.00 0.00 85 1017.0
20260830103332 76 360 0.9 7.0 0.00 0.00 0.00 85 1017.0
20260830103232 76 360 0.9 7.0 0.00 0.00 0.00 85 1017.0
20260830103132 76 360 0.9 7.0 0.00 0.00 0.00 85 1017.0
20260830103031 76 360 1.7 7.0 0.00 0.00 0.00 85 1017.0
20260830102932 76 360 1.7 7.0 0.00 0.00 0.00 84 1017.1
20260830102835 76 360 2.6 7.0 0.00 0.00 0.00 84 1017.0
20260830102718 76 360 2.6 7.0 0.00 0.00 0.00 84 1017.0
20260830102639 76 360 1.7 7.0 0.00 0.00 0.00 84 1017.0
20260830102518 76 360 1.7 7.0 0.00 0.00 0.00 84 1017.0
20260830102439 76 360 1.7 7.0 0.00 0.00 0.00 84 1017.0
20260830102318 76 360 1.7 7.0 0.00 0.00 0.00 84 1017.1
20260830102220 76 360 1.7 7.0 0.00 0.00 0.00 84 1017.0
20260830102120 76 360 1.7 7.0 0.00 0.00 0.00 84 1017.0
20260830102041 76 360 1.7 7.0 0.00 0.00 0.00 84 1016.9
20260830101924 76 360 1.7 7.0 0.00 0.00 0.00 84 1017.0
20260830101825 76 360 1.7 7.0 0.00 0.00 0.00 84 1017.0
20260830101726 76 360 1.7 7.0 0.00 0.00 0.00 84 1017.0
20260830101626 76 360 1.7 4.3 0.00 0.00 0.00 84 1017.1
20260830101547 76 360 2.6 7.0 0.00 0.00 0.00 84 1017.0
20260830101427 76 360 2.6 7.0 0.00 0.00 0.00 84 1017.0
20260830101327 76 360 1.7 7.0 0.00 0.00 0.00 84 1017.0
20260830101231 76 360 0.9 7.0 0.00 0.00 0.00 84 1017.0
20260830101152 76 360 0.9 7.0 0.00 0.00 0.00 84 1017.0
20260830101031 76 360 0.9 7.0 0.00 0.00 0.00 84 1017.0
20260830100952 76 360 1.7 7.0 0.00 0.00 0.00 84 1016.9
20260830100831 76 360 2.6 7.0 0.00 0.00 0.00 84 1016.9
20260830100733 76 360 2.6 7.0 0.00 0.00 0.00 84 1016.9
20260830100654 76 360 2.6 7.0 0.00 0.00 0.00 84 1016.9
20260830100532 76 360 1.7 7.0 0.00 0.00 0.00 83 1016.9
20260830100417 76 360 2.6 7.0 0.00 0.00 0.00 83 1016.9
20260830100338 76 360 2.6 7.0 0.00 0.00 0.00 83 1016.9
20260830100237 76 360 1.7 7.0 0.00 0.00 0.00 83 1017.0
20260830100116 76 360 1.7 5.2 0.00 0.00 0.00 83 1017.0
20260830100016 76 360 1.7 5.2 0.00 0.00 0.00 83 1017.0
20260830095917 76 360 1.7 5.2 0.00 0.00 0.00 83 1017.0
20260830095818 76 360 1.7 5.2 0.00 0.00 0.00 83 1017.0
20260830095718 76 360 1.7 5.2 0.00 0.00 0.00 83 1017.1
20260830095642 76 360 1.7 5.2 0.00 0.00 0.00 83 1017.1
20260830095522 76 360 1.7 5.2 0.00 0.00 0.00 83 1017.1
20260830095423 76 360 0.9 4.3 0.00 0.00 0.00 83 1017.0
20260830095323 76 360 0.9 4.3 0.00 0.00 0.00 83 1017.1
20260830095223 76 360 1.7 4.3 0.00 0.00 0.00 83 1017.1
20260830095124 76 360 1.7 5.2 0.00 0.00 0.00 83 1017.0
20260830095024 76 360 1.7 7.8 0.00 0.00 0.00 83 1017.1
20260830094929 76 360 1.7 7.8 0.00 0.00 0.00 83 1017.0
20260830094831 76 360 1.7 7.8 0.00 0.00 0.00 83 1017.0
20260830094730 77 360 1.7 7.8 0.00 0.00 0.00 83 1017.1
20260830094631 77 360 1.7 7.8 0.00 0.00 0.00 82 1017.0
20260830094531 76 360 1.7 7.8 0.00 0.00 0.00 82 1017.0
20260830094452 76 360 1.7 7.8 0.00 0.00 0.00 82 1017.0
20260830094331 76 360 3.5 7.8 0.00 0.00 0.00 82 1017.0
20260830094235 76 360 3.5 7.8 0.00 0.00 0.00 82 1017.0
20260830094117 76 360 1.7 7.8 0.00 0.00 0.00 82 1017.0
20260830094017 76 360 0.9 7.0 0.00 0.00 0.00 82 1017.0
20260830093917 76 360 1.7 7.0 0.00 0.00 0.00 82 1017.0
20260830093817 76 360 1.7 7.0 0.00 0.00 0.00 82 1017.0
20260830093718 77 360 1.7 7.0 0.00 0.00 0.00 82 1017.0
20260830093622 77 360 1.7 7.0 0.00 0.00 0.00 82 1017.0
20260830093523 77 360 2.6 7.0 0.00 0.00 0.00 82 1017.0
20260830093425 77 360 1.7 5.2 0.00 0.00 0.00 81 1017.0
20260830093325 77 360 1.7 5.2 0.00 0.00 0.00 81 1017.0
20260830093226 77 360 1.7 5.2 0.00 0.00 0.00 81 1016.9
20260830093147 77 360 2.6 5.2 0.00 0.00 0.00 81 1017.0
20260830093027 77 360 2.6 5.2 0.00 0.00 0.00 81 1017.0
20260830092931 77 360 2.6 5.2 0.00 0.00 0.00 81 1017.0
20260830092833 77 360 2.6 5.2 0.00 0.00 0.00 81 1017.0
20260830092732 77 360 1.7 4.3 0.00 0.00 0.00 81 1016.9
20260830092632 77 360 1.7 4.3 0.00 0.00 0.00 81 1017.0
20260830092533 77 159 1.7 5.2 0.00 0.00 0.00 81 1017.0
20260830092434 77 159 1.7 5.2 0.00 0.00 0.00 81 1017.0
20260830092318 77 360 2.6 4.3 0.00 0.00 0.00 81 1017.0
20260830092218 77 360 2.6 4.3 0.00 0.00 0.00 81 1016.9
20260830092119 77 360 1.7 4.3 0.00 0.00 0.00 81 1016.9
20260830092020 77 360 1.7 9.6 0.00 0.00 0.00 81 1016.9
20260830091921 77 360 1.7 9.6 0.00 0.00 0.00 81 1017.0
20260830091823 77 360 1.7 9.6 0.00 0.00 0.00 81 1016.9
20260830091722 77 360 1.7 9.6 0.00 0.00 0.00 81 1016.9
20260830091627 77 360 2.6 9.6 0.00 0.00 0.00 81 1017.0
20260830091528 77 360 2.6 9.6 0.00 0.00 0.00 81 1016.9
20260830091428 77 360 3.5 9.6 0.00 0.00 0.00 81 1016.9
20260830091349 77 360 3.5 9.6 0.00 0.00 0.00 81 1017.0
20260830091227 77 360 3.5 9.6 0.00 0.00 0.00 81 1016.9
20260830091128 77 360 2.6 9.6 0.00 0.00 0.00 80 1016.9
20260830091049 77 360 2.6 7.0 0.00 0.00 0.00 80 1016.9
20260830090929 77 360 2.6 5.2 0.00 0.00 0.00 80 1016.8
20260830090833 77 360 1.7 5.2 0.00 0.00 0.00 80 1016.9
20260830090734 77 360 1.7 5.2 0.00 0.00 0.00 80 1017.0
20260830090635 77 360 1.7 5.2 0.00 0.00 0.00 80 1017.0
20260830090556 77 360 2.6 5.2 0.00 0.00 0.00 80 1017.0
20260830090436 77 360 2.6 7.8 0.00 0.00 0.00 80 1016.9
20260830090357 77 360 2.6 7.8 0.00 0.00 0.00 80 1017.0
20260830090235 77 360 1.7 7.8 0.00 0.00 0.00 80 1017.0
20260830090121 77 360 1.7 7.8 0.00 0.00 0.00 80 1017.0
20260830090042 77 360 1.7 7.8 0.00 0.00 0.00 80 1017.0
20260830085916 77 360 2.6 7.8 0.00 0.00 0.00 80 1017.0
20260830085818 77 360 3.5 7.8 0.00 0.00 0.00 80 1017.0
20260830085718 77 360 4.3 7.8 0.00 0.00 0.00 80 1017.1
20260830085618 77 360 4.3 7.8 0.00 0.00 0.00 80 1017.0
20260830085539 77 360 2.6 7.8 0.00 0.00 0.00 80 1017.0
20260830085442 77 360 2.6 7.8 0.00 0.00 0.00 79 1017.0
20260830085322 77 360 1.7 7.8 0.00 0.00 0.00 79 1017.0
20260830085222 78 360 1.7 7.8 0.00 0.00 0.00 80 1017.1
20260830085123 78 360 1.7 7.8 0.00 0.00 0.00 80 1017.0
20260830085043 78 360 1.7 7.8 0.00 0.00 0.00 79 1017.0
20260830085003 78 360 2.6 7.8 0.00 0.00 0.00 79 1017.1
20260830084816 78 360 2.6 7.8 0.00 0.00 0.00 79 1017.1
20260830084720 78 360 2.6 7.8 0.00 0.00 0.00 79 1017.1
20260830084620 78 360 2.6 7.8 0.00 0.00 0.00 79 1017.1
20260830084521 78 360 2.6 7.0 0.00 0.00 0.00 79 1017.1
20260830084422 78 360 2.6 7.0 0.00 0.00 0.00 79 1017.1
20260830084322 78 360 1.7 7.0 0.00 0.00 0.00 79 1017.1
20260830084243 78 360 1.7 7.0 0.00 0.00 0.00 79 1017.1
20260830084122 78 360 2.6 7.0 0.00 0.00 0.00 79 1017.1
20260830084021 78 360 2.6 7.0 0.00 0.00 0.00 79 1017.1
20260830083945 78 360 2.6 7.0 0.00 0.00 0.00 79 1017.1
20260830083826 78 360 2.6 7.0 0.00 0.00 0.00 79 1017.1
20260830083727 78 360 2.6 7.0 0.00 0.00 0.00 79 1017.1
20260830083627 78 360 1.7 7.0 0.00 0.00 0.00 80 1017.0
20260830083527 78 360 2.6 7.0 0.00 0.00 0.00 80 1017.0
20260830083428 78 360 2.6 7.0 0.00 0.00 0.00 79 1017.0
20260830083328 78 360 2.6 7.0 0.00 0.00 0.00 79 1017.0
20260830083232 78 360 2.6 7.0 0.00 0.00 0.00 79 1017.1
20260830083133 78 360 2.6 7.0 0.00 0.00 0.00 79 1017.0
20260830083033 78 360 2.6 7.0 0.00 0.00 0.00 79 1017.0
20260830082933 78 360 1.7 8.7 0.00 0.00 0.00 79 1017.0
20260830082836 78 360 2.6 8.7 0.00 0.00 0.00 79 1017.0
20260830082735 78 360 2.6 8.7 0.00 0.00 0.00 79 1017.0
20260830082620 78 360 2.6 8.7 0.00 0.00 0.00 79 1017.0
20260830082521 78 360 1.7 8.7 0.00 0.00 0.00 79 1017.0
20260830082421 78 360 2.6 8.7 0.00 0.00 0.00 78 1017.0
20260830082322 78 360 3.5 13.0 0.00 0.00 0.00 78 1017.0
20260830082242 78 360 3.5 13.0 0.00 0.00 0.00 78 1017.0
20260830082142 78 360 2.6 13.0 0.00 0.00 0.00 78 1017.0
20260830082022 78 360 2.6 13.0 0.00 0.00 0.00 78 1017.0
20260830081927 78 360 3.5 13.0 0.00 0.00 0.00 78 1017.0
20260830081827 78 360 3.5 13.0 0.00 0.00 0.00 78 1017.0
20260830081728 78 360 4.3 13.0 0.00 0.00 0.00 78 1017.0
20260830081629 78 360 5.2 13.0 0.00 0.00 0.00 78 1017.0
20260830081529 78 360 5.2 13.0 0.00 0.00 0.00 78 1017.0
20260830081430 78 360 5.2 8.7 0.00 0.00 0.00 78 1017.0
20260830081329 78 360 3.5 7.8 0.00 0.00 0.00 78 1017.0
20260830081234 78 360 3.5 7.8 0.00 0.00 0.00 78 1017.0
20260830081134 78 360 4.3 9.6 0.00 0.00 0.00 78 1017.1
20260830081036 78 360 3.5 9.6 0.00 0.00 0.00 78 1017.0
20260830080935 79 360 4.3 9.6 0.00 0.00 0.00 78 1017.1
20260830080835 79 360 2.6 9.6 0.00 0.00 0.00 78 1017.1
20260830080756 79 360 2.6 9.6 0.00 0.00 0.00 78 1017.1
20260830080634 79 360 3.5 9.6 0.00 0.00 0.00 78 1017.1
20260830080519 79 360 4.3 12.2 0.00 0.00 0.00 78 1017.2
20260830080419 79 360 4.3 12.2 0.00 0.00 0.00 78 1017.1
20260830080319 79 360 2.6 12.2 0.00 0.00 0.00 78 1017.1
20260830080219 79 360 1.7 12.2 0.00 0.00 0.00 77 1017.1
20260830080141 79 360 1.7 12.2 0.00 0.00 0.00 77 1017.1
20260830080019 79 360 2.6 12.2 0.00 0.00 0.00 77 1017.0
20260830075940 79 360 4.3 12.2 0.00 0.00 0.00 77 1017.1
20260830075821 79 360 5.2 12.2 0.00 0.00 0.00 77 1017.2
20260830075718 79 360 6.1 12.2 0.00 0.00 0.00 77 1017.2
20260830075623 79 360 5.2 12.2 0.00 0.00 0.00 77 1017.2
20260830075545 79 360 5.2 12.2 0.00 0.00 0.00 77 1017.2
20260830075444 79 360 5.2 12.2 0.00 0.00 0.00 77 1017.2
20260830075323 79 360 6.1 12.2 0.00 0.00 0.00 77 1017.3
20260830075224 79 360 7.0 12.2 0.00 0.00 0.00 77 1017.2
20260830075125 79 360 8.7 12.2 0.00 0.00 0.00 77 1017.3
20260830075025 79 360 7.8 12.2 0.00 0.00 0.00 77 1017.3
20260830074946 79 360 6.1 12.2 0.00 0.00 0.00 77 1017.3
20260830074830 79 360 6.1 11.3 0.00 0.00 0.00 77 1017.3
20260830074729 79 360 6.1 11.3 0.00 0.00 0.00 77 1017.2
20260830074630 79 360 7.0 11.3 0.00 0.00 0.00 77 1017.2
20260830074530 79 360 5.2 10.4 0.00 0.00 0.00 77 1017.2
20260830074431 79 360 5.2 10.4 0.00 0.00 0.00 77 1017.3
20260830074333 79 360 4.3 10.4 0.00 0.00 0.00 77 1017.3
20260830074217 79 360 4.3 10.4 0.00 0.00 0.00 77 1017.3
20260830074138 79 360 4.3 9.6 0.00 0.00 0.00 77 1017.3
20260830074018 79 360 4.3 9.6 0.00 0.00 0.00 77 1017.3
20260830073918 79 360 4.3 9.6 0.00 0.00 0.00 77 1017.3
20260830073818 79 360 4.3 9.6 0.00 0.00 0.00 77 1017.3
20260830073718 79 360 4.3 9.6 0.00 0.00 0.00 77 1017.3
20260830073619 79 360 5.2 9.6 0.00 0.00 0.00 77 1017.4
20260830073520 79 360 6.1 11.3 0.00 0.00 0.00 77 1017.3
20260830073425 79 360 6.1 11.3 0.00 0.00 0.00 77 1017.3
20260830073326 79 360 5.2 11.3 0.00 0.00 0.00 77 1017.3
20260830073227 79 360 5.2 11.3 0.00 0.00 0.00 77 1017.3
20260830073128 79 171 6.1 11.3 0.00 0.00 0.00 77 1017.4
20260830073029 79 360 6.1 11.3 0.00 0.00 0.00 77 1017.3
20260830072929 79 360 6.1 11.3 0.00 0.00 0.00 77 1017.4
20260830072851 79 360 5.2 11.3 0.00 0.00 0.00 77 1017.3
20260830072734 79 360 5.2 11.3 0.00 0.00 0.00 77 1017.4
20260830072654 79 360 4.3 9.6 0.00 0.00 0.00 77 1017.4
20260830072534 79 360 5.2 9.6 0.00 0.00 0.00 77 1017.4
20260830072434 79 360 5.2 9.6 0.00 0.00 0.00 76 1017.3
20260830072334 80 360 6.1 9.6 0.00 0.00 0.00 76 1017.4
20260830072233 80 360 6.1 11.3 0.00 0.00 0.00 76 1017.4
20260830072134 80 360 6.1 11.3 0.00 0.00 0.00 76 1017.4
20260830072018 80 360 6.1 11.3 0.00 0.00 0.00 76 1017.4
20260830071920 80 360 6.1 11.3 0.00 0.00 0.00 76 1017.4
20260830071820 80 360 5.2 11.3 0.00 0.00 0.00 76 1017.4
20260830071741 80 360 5.2 11.3 0.00 0.00 0.00 76 1017.5
20260830071621 80 360 6.1 11.3 0.00 0.00 0.00 76 1017.4
20260830071542 80 360 7.0 11.3 0.00 0.00 0.00 76 1017.4
20260830071442 80 360 7.0 13.0 0.00 0.00 0.00 76 1017.4
20260830071316 80 360 4.3 13.0 0.00 0.00 0.00 76 1017.4
20260830071221 80 360 4.3 13.0 0.00 0.00 0.00 76 1017.4
20260830071121 80 360 4.3 13.0 0.00 0.00 0.00 75 1017.4
20260830071021 80 360 6.1 13.0 0.00 0.00 0.00 75 1017.4
20260830070941 80 360 5.2 13.0 0.00 0.00 0.00 75 1017.3
20260830070820 80 360 5.2 13.0 0.00 0.00 0.00 75 1017.3
20260830070721 80 360 4.3 13.0 0.00 0.00 0.00 75 1017.3
20260830070621 80 360 6.1 13.0 0.00 0.00 0.00 75 1017.3
20260830070525 80 360 5.2 12.2 0.00 0.00 0.00 75 1017.3
20260830070427 80 360 5.2 12.2 0.00 0.00 0.00 75 1017.4
20260830070327 80 360 4.3 12.2 0.00 0.00 0.00 75 1017.3
20260830070227 80 360 4.3 12.2 0.00 0.00 0.00 75 1017.4
20260830070127 80 360 5.2 15.6 0.00 0.00 0.00 75 1017.3
20260830070027 80 360 6.1 15.6 0.00 0.00 0.00 75 1017.4
20260830065948 80 360 4.3 15.6 0.00 0.00 0.00 75 1017.3
20260830065832 80 360 4.3 15.6 0.00 0.00 0.00 75 1017.3
20260830065730 80 360 5.2 15.6 0.00 0.00 0.00 75 1017.3
20260830065651 80 360 5.2 15.6 0.00 0.00 0.00 75 1017.4
20260830065530 80 360 6.1 15.6 0.00 0.00 0.00 75 1017.3
20260830065430 80 360 7.0 15.6 0.00 0.00 0.00 75 1017.3
20260830065330 81 360 6.1 12.2 0.00 0.00 0.00 75 1017.5
20260830065232 81 360 6.1 12.2 0.00 0.00 0.00 75 1017.4
20260830065133 81 360 5.2 11.3 0.00 0.00 0.00 75 1017.3
20260830065038 81 360 4.3 11.3 0.00 0.00 0.00 75 1017.4
20260830064917 81 360 4.3 11.3 0.00 0.00 0.00 75 1017.3
20260830064817 81 360 5.2 11.3 0.00 0.00 0.00 75 1017.3
20260830064716 81 360 6.1 11.3 0.00 0.00 0.00 75 1017.3
20260830064617 81 360 5.2 11.3 0.00 0.00 0.00 74 1017.3
20260830064517 81 360 4.3 11.3 0.00 0.00 0.00 74 1017.3
20260830064438 81 360 3.5 11.3 0.00 0.00 0.00 74 1017.3
20260830064318 81 360 4.3 12.2 0.00 0.00 0.00 74 1017.3
20260830064223 81 360 6.1 12.2 0.00 0.00 0.00 74 1017.2
20260830064124 81 360 7.0 13.9 0.00 0.00 0.00 74 1017.3
20260830064023 81 360 7.0 13.9 0.00 0.00 0.00 74 1017.2
20260830063944 81 360 5.2 13.9 0.00 0.00 0.00 74 1017.3
20260830063822 81 360 5.2 13.9 0.00 0.00 0.00 74 1017.2
20260830063722 81 360 6.1 13.9 0.00 0.00 0.00 74 1017.2
20260830063623 81 360 6.1 16.5 0.00 0.00 0.00 74 1017.2
20260830063524 81 360 6.1 16.5 0.00 0.00 0.00 74 1017.1
20260830063429 81 188 4.3 16.5 0.00 0.00 0.00 74 1017.2
20260830063329 81 360 5.2 16.5 0.00 0.00 0.00 74 1017.1
20260830063229 81 360 5.2 16.5 0.00 0.00 0.00 74 1017.1
20260830063130 81 360 6.1 16.5 0.00 0.00 0.00 74 1017.2
20260830063030 81 360 6.1 16.5 0.00 0.00 0.00 74 1017.1
20260830062930 81 360 6.1 16.5 0.00 0.00 0.00 74 1017.1
20260830062831 81 360 6.1 16.5 0.00 0.00 0.00 74 1017.2
20260830062734 81 360 5.2 10.4 0.00 0.00 0.00 74 1017.1
20260830062635 81 360 4.3 13.9 0.00 0.00 0.00 74 1017.2
20260830062556 81 360 4.3 13.9 0.00 0.00 0.00 74 1017.2
20260830062456 81 360 4.3 13.9 0.00 0.00 0.00 74 1017.2
20260830062335 81 360 6.1 13.9 0.00 0.00 0.00 74 1017.2
20260830062235 81 360 6.1 13.9 0.00 0.00 0.00 74 1017.3
20260830062116 81 360 6.1 13.9 0.00 0.00 0.00 74 1017.3
20260830062021 81 360 7.0 13.9 0.00 0.00 0.00 74 1017.2
20260830061921 81 360 7.0 13.9 0.00 0.00 0.00 74 1017.3
20260830061821 81 360 5.2 13.9 0.00 0.00 0.00 74 1017.3
20260830061722 81 175 4.3 11.3 0.00 0.00 0.00 74 1017.3
20260830061624 81 360 4.3 11.3 0.00 0.00 0.00 74 1017.2
20260830061524 81 360 6.1 11.3 0.00 0.00 0.00 74 1017.3
20260830061429 82 360 5.2 13.0 0.00 0.00 0.00 74 1017.2
20260830061329 82 360 4.3 13.0 0.00 0.00 0.00 74 1017.2
20260830061230 82 360 4.3 13.0 0.00 0.00 0.00 73 1017.3
20260830061131 82 360 4.3 13.0 0.00 0.00 0.00 73 1017.3
20260830061031 82 360 5.2 13.0 0.00 0.00 0.00 73 1017.3
20260830060932 82 360 6.1 13.0 0.00 0.00 0.00 73 1017.2
20260830060832 82 360 7.0 13.0 0.00 0.00 0.00 73 1017.2
20260830060717 82 360 6.1 13.0 0.00 0.00 0.00 73 1017.3
20260830060618 82 360 6.1 13.0 0.00 0.00 0.00 73 1017.3
20260830060538 82 360 7.0 13.0 0.00 0.00 0.00 73 1017.3
20260830060418 82 360 7.0 13.0 0.00 0.00 0.00 73 1017.2
20260830060319 82 360 6.1 13.0 0.00 0.00 0.00 73 1017.3
20260830060219 82 360 4.3 13.9 0.00 0.00 0.00 73 1017.3
20260830060120 82 360 4.3 13.9 0.00 0.00 0.00 73 1017.2
20260830060023 82 360 5.2 13.9 0.00 0.00 0.00 73 1017.3
20260830055924 82 360 5.2 13.9 0.00 0.00 0.00 73 1017.2
20260830055825 82 360 6.1 13.9 0.00 0.00 0.00 73 1017.2
20260830055726 82 360 5.2 13.9 0.00 0.00 0.00 72 1017.2
20260830055647 82 360 5.2 13.9 0.00 0.00 0.00 72 1017.2
20260830055525 82 360 5.2 13.9 0.00 0.00 0.00 72 1017.2
20260830055426 82 360 6.1 13.9 0.00 0.00 0.00 72 1017.2
20260830055325 82 360 7.0 13.0 0.00 0.00 0.00 72 1017.2
20260830055229 82 360 7.0 13.0 0.00 0.00 0.00 72 1017.1
20260830055130 82 360 7.8 13.0 0.00 0.00 0.00 72 1017.2
20260830055030 82 360 7.0 13.0 0.00 0.00 0.00 72 1017.2
20260830054931 82 360 5.2 11.3 0.00 0.00 0.00 72 1017.1
20260830054831 82 360 4.3 11.3 0.00 0.00 0.00 72 1017.2
20260830054731 82 360 6.1 12.2 0.00 0.00 0.00 72 1017.1
20260830054631 82 360 7.0 12.2 0.00 0.00 0.00 72 1017.1
20260830054516 82 360 6.1 12.2 0.00 0.00 0.00 72 1017.2
20260830054417 83 360 6.1 12.2 0.00 0.00 0.00 72 1017.1
20260830054317 83 360 6.1 12.2 0.00 0.00 0.00 72 1017.1
20260830054218 83 360 5.2 12.2 0.00 0.00 0.00 71 1017.1
20260830054118 83 360 4.3 12.2 0.00 0.00 0.00 71 1017.1
20260830054019 83 360 4.3 12.2 0.00 0.00 0.00 71 1017.2
20260830053923 83 360 5.2 16.5 0.00 0.00 0.00 71 1017.2
20260830053823 83 360 5.2 16.5 0.00 0.00 0.00 71 1017.2
20260830053722 83 360 5.2 16.5 0.00 0.00 0.00 71 1017.2
20260830053623 83 360 6.1 16.5 0.00 0.00 0.00 71 1017.2
20260830053522 83 360 7.0 16.5 0.00 0.00 0.00 71 1017.2
20260830053423 83 360 7.0 16.5 0.00 0.00 0.00 71 1017.2
20260830053324 83 360 7.0 16.5 0.00 0.00 0.00 71 1017.2
20260830053228 83 360 7.0 16.5 0.00 0.00 0.00 71 1017.2
20260830053149 83 360 7.8 16.5 0.00 0.00 0.00 71 1017.2
20260830053028 83 360 7.0 16.5 0.00 0.00 0.00 71 1017.2
20260830052928 83 360 7.0 16.5 0.00 0.00 0.00 71 1017.2
20260830052830 83 360 7.0 13.0 0.00 0.00 0.00 71 1017.2
20260830052730 83 360 7.8 13.0 0.00 0.00 0.00 71 1017.2
20260830052629 83 360 7.0 11.3 0.00 0.00 0.00 71 1017.3
20260830052551 83 360 5.2 11.3 0.00 0.00 0.00 71 1017.3
20260830052433 83 360 5.2 11.3 0.00 0.00 0.00 70 1017.2
20260830052334 83 360 5.2 11.3 0.00 0.00 0.00 70 1017.2
20260830052235 83 360 5.2 11.3 0.00 0.00 0.00 70 1017.1
20260830052135 83 360 6.1 11.3 0.00 0.00 0.00 70 1017.2
20260830052055 83 360 6.1 11.3 0.00 0.00 0.00 70 1017.2
20260830051935 83 169 6.1 11.3 0.00 0.00 0.00 70 1017.2
20260830051816 83 360 5.2 11.3 0.00 0.00 0.00 70 1017.2
20260830051741 83 360 4.3 10.4 0.00 0.00 0.00 70 1017.2
20260830051621 83 360 4.3 10.4 0.00 0.00 0.00 70 1017.2
20260830051521 83 360 3.5 10.4 0.00 0.00 0.00 70 1017.3
20260830051422 83 360 3.5 10.4 0.00 0.00 0.00 70 1017.3
20260830051322 83 360 4.3 10.4 0.00 0.00 0.00 70 1017.3
20260830051243 84 360 4.3 13.0 0.00 0.00 0.00 70 1017.2
20260830051123 84 360 4.3 13.0 0.00 0.00 0.00 70 1017.3
20260830051044 84 360 4.3 13.0 0.00 0.00 0.00 70 1017.2
20260830050928 84 360 5.2 13.0 0.00 0.00 0.00 70 1017.3
20260830050829 84 360 5.2 13.0 0.00 0.00 0.00 70 1017.3
20260830050730 84 360 5.2 13.0 0.00 0.00 0.00 70 1017.3
20260830050629 84 360 6.1 13.0 0.00 0.00 0.00 70 1017.2
20260830050529 84 360 7.8 13.0 0.00 0.00 0.00 70 1017.3
20260830050428 84 360 7.8 13.0 0.00 0.00 0.00 70 1017.3
20260830050329 84 360 7.0 12.2 0.00 0.00 0.00 70 1017.2
20260830050233 84 360 6.1 12.2 0.00 0.00 0.00 70 1017.2
20260830050134 84 360 6.1 11.3 0.00 0.00 0.00 70 1017.2
20260830050033 84 360 5.2 11.3 0.00 0.00 0.00 69 1017.2
20260830045948 84 360 5.2 13.0 0.00 0.00 0.00 69 1017.2
20260830045828 84 360 4.3 13.0 0.00 0.00 0.00 69 1017.2
20260830045748 84 360 5.2 13.0 0.00 0.00 0.00 69 1017.2
20260830045626 84 360 5.2 13.0 0.00 0.00 0.00 69 1017.3
20260830045527 84 360 5.2 13.0 0.00 0.00 0.00 69 1017.3
20260830045432 84 360 4.3 13.0 0.00 0.00 0.00 69 1017.3
20260830045333 84 360 6.1 13.0 0.00 0.00 0.00 69 1017.3
20260830045234 84 360 6.1 13.0 0.00 0.00 0.00 69 1017.3
20260830045134 84 360 7.8 13.0 0.00 0.00 0.00 69 1017.3
20260830045034 84 360 7.0 13.0 0.00 0.00 0.00 69 1017.2
20260830044935 84 360 7.0 13.0 0.00 0.00 0.00 69 1017.2
20260830044819 84 360 7.0 12.2 0.00 0.00 0.00 69 1017.2
20260830044720 84 360 7.0 13.0 0.00 0.00 0.00 69 1017.2
20260830044640 84 360 6.1 13.0 0.00 0.00 0.00 69 1017.2
20260830044519 84 360 7.0 13.0 0.00 0.00 0.00 69 1017.2
20260830044419 84 360 6.1 13.0 0.00 0.00 0.00 69 1017.2
20260830044320 84 360 6.1 13.0 0.00 0.00 0.00 68 1017.2
20260830044240 85 360 7.0 13.0 0.00 0.00 0.00 68 1017.2
20260830044119 85 360 7.8 13.0 0.00 0.00 0.00 68 1017.3
20260830044044 85 360 8.7 13.0 0.00 0.00 0.00 68 1017.2
20260830043924 85 360 7.8 13.0 0.00 0.00 0.00 68 1017.3
20260830043825 85 360 6.1 11.3 0.00 0.00 0.00 68 1017.2
20260830043725 85 360 6.1 11.3 0.00 0.00 0.00 68 1017.3
20260830043626 85 360 6.1 11.3 0.00 0.00 0.00 68 1017.3
20260830043526 85 360 7.0 11.3 0.00 0.00 0.00 68 1017.2
20260830043447 85 360 6.1 11.3 0.00 0.00 0.00 68 1017.2
20260830043330 85 360 7.0 12.2 0.00 0.00 0.00 68 1017.2
20260830043230 85 360 5.2 12.2 0.00 0.00 0.00 68 1017.2
20260830043130 85 360 5.2 12.2 0.00 0.00 0.00 68 1017.2
20260830043051 85 360 5.2 11.3 0.00 0.00 0.00 68 1017.3
20260830042931 85 360 5.2 11.3 0.00 0.00 0.00 68 1017.2
20260830042853 85 360 5.2 11.3 0.00 0.00 0.00 67 1017.2
20260830042731 85 360 5.2 11.3 0.00 0.00 0.00 67 1017.3
20260830042651 85 360 4.3 11.3 0.00 0.00 0.00 67 1017.2
20260830042535 85 360 4.3 11.3 0.00 0.00 0.00 67 1017.3
20260830042435 85 360 4.3 11.3 0.00 0.00 0.00 67 1017.3
20260830042316 85 360 5.2 11.3 0.00 0.00 0.00 67 1017.3
20260830042216 85 360 6.1 10.4 0.00 0.00 0.00 67 1017.3
20260830042117 85 360 5.2 10.4 0.00 0.00 0.00 67 1017.3
20260830042017 85 360 4.3 10.4 0.00 0.00 0.00 67 1017.3
20260830041917 85 360 4.3 14.8 0.00 0.00 0.00 67 1017.2
20260830041822 85 360 6.1 14.8 0.00 0.00 0.00 67 1017.3
20260830041723 85 360 5.2 14.8 0.00 0.00 0.00 67 1017.3
20260830041623 85 360 4.3 14.8 0.00 0.00 0.00 66 1017.2
20260830041524 86 360 2.6 15.6 0.00 0.00 0.00 66 1017.3
20260830041425 86 360 3.5 15.6 0.00 0.00 0.00 66 1017.2
20260830041345 86 360 5.2 15.6 0.00 0.00 0.00 66 1017.3
20260830041225 86 360 7.0 15.6 0.00 0.00 0.00 66 1017.3
20260830041130 86 360 6.1 15.6 0.00 0.00 0.00 66 1017.3
20260830041030 86 360 7.0 15.6 0.00 0.00 0.00 66 1017.3
20260830040931 86 360 7.8 15.6 0.00 0.00 0.00 66 1017.3
20260830040832 86 360 9.6 15.6 0.00 0.00 0.00 66 1017.4
20260830040733 86 360 7.8 15.6 0.00 0.00 0.00 66 1017.3
20260830040633 86 360 6.1 13.9 0.00 0.00 0.00 66 1017.3
20260830040553 86 360 6.1 13.9 0.00 0.00 0.00 66 1017.3
20260830040436 86 360 6.1 13.9 0.00 0.00 0.00 65 1017.3
20260830040356 86 360 7.8 13.9 0.00 0.00 0.00 65 1017.3
20260830040235 86 360 7.8 13.9 0.00 0.00 0.00 65 1017.3
20260830040135 86 360 9.6 15.6 0.00 0.00 0.00 65 1017.2
20260830040036 86 360 7.8 15.6 0.00 0.00 0.00 65 1017.2
20260830035956 86 360 6.1 17.4 0.00 0.00 0.00 65 1017.3
20260830035838 86 360 5.2 17.4 0.00 0.00 0.00 65 1017.2
20260830035756 86 360 7.0 17.4 0.00 0.00 0.00 65 1017.2
20260830035621 86 360 7.0 17.4 0.00 0.00 0.00 65 1017.2
20260830035521 86 360 8.7 17.4 0.00 0.00 0.00 65 1017.1
20260830035420 86 360 10.4 17.4 0.00 0.00 0.00 65 1017.2
20260830035321 86 360 11.3 17.4 0.00 0.00 0.00 65 1017.1
20260830035221 86 360 10.4 17.4 0.00 0.00 0.00 65 1017.1
20260830035122 86 360 8.7 19.1 0.00 0.00 0.00 65 1017.1
20260830035023 86 360 9.6 19.1 0.00 0.00 0.00 65 1017.1
20260830034927 86 360 10.4 19.1 0.00 0.00 0.00 65 1017.1
20260830034827 87 360 10.4 19.1 0.00 0.00 0.00 65 1017.2
20260830034726 87 360 8.7 19.1 0.00 0.00 0.00 65 1017.1
20260830034627 87 360 7.8 19.1 0.00 0.00 0.00 65 1017.2
20260830034528 87 360 8.7 19.1 0.00 0.00 0.00 65 1017.2
20260830034430 87 360 9.6 19.1 0.00 0.00 0.00 64 1017.2
20260830034352 87 360 8.7 17.4 0.00 0.00 0.00 64 1017.2
20260830034235 87 360 8.7 16.5 0.00 0.00 0.00 64 1017.2
20260830034116 87 360 9.6 16.5 0.00 0.00 0.00 64 1017.2
20260830034017 87 360 10.4 13.9 0.00 0.00 0.00 64 1017.2
20260830033937 87 360 9.6 13.9 0.00 0.00 0.00 64 1017.2
20260830033817 87 360 7.8 16.5 0.00 0.00 0.00 64 1017.2
20260830033717 87 360 7.0 16.5 0.00 0.00 0.00 64 1017.2
20260830033617 87 360 6.1 16.5 0.00 0.00 0.00 64 1017.2
20260830033521 87 360 7.0 16.5 0.00 0.00 0.00 64 1017.2
20260830033422 87 360 8.7 16.5 0.00 0.00 0.00 63 1017.1
20260830033323 87 360 9.6 16.5 0.00 0.00 0.00 63 1017.1
20260830033224 87 360 11.3 16.5 0.00 0.00 0.00 63 1017.1
20260830033123 87 360 10.4 16.5 0.00 0.00 0.00 63 1017.1
20260830033024 87 360 9.6 15.6 0.00 0.00 0.00 63 1017.1
20260830032924 87 360 8.7 14.8 0.00 0.00 0.00 63 1017.1
20260830032829 87 360 9.6 14.8 0.00 0.00 0.00 63 1017.1
20260830032729 87 360 8.7 16.5 0.00 0.00 0.00 63 1017.0
20260830032630 87 360 8.7 16.5 0.00 0.00 0.00 63 1017.1
20260830032549 87 360 8.7 16.5 0.00 0.00 0.00 62 1017.0
20260830032449 87 360 9.6 16.5 0.00 0.00 0.00 62 1017.1
20260830032329 87 360 9.6 16.5 0.00 0.00 0.00 62 1017.0
20260830032230 87 360 8.7 16.5 0.00 0.00 0.00 62 1017.0
20260830032134 87 360 7.8 16.5 0.00 0.00 0.00 62 1017.0
20260830032035 88 360 7.8 16.5 0.00 0.00 0.00 62 1017.0
20260830031935 88 360 7.0 16.5 0.00 0.00 0.00 62 1016.9
20260830031816 88 360 7.0 13.9 0.00 0.00 0.00 62 1017.0
20260830031717 88 360 7.0 13.9 0.00 0.00 0.00 61 1017.0
20260830031617 88 360 7.8 13.9 0.00 0.00 0.00 61 1016.9
20260830031538 88 360 7.8 13.9 0.00 0.00 0.00 61 1016.9
20260830031421 88 360 8.7 13.9 0.00 0.00 0.00 61 1016.9
20260830031321 88 360 8.7 14.8 0.00 0.00 0.00 61 1016.9
20260830031222 88 360 8.7 14.8 0.00 0.00 0.00 60 1016.8
20260830031123 88 360 8.7 15.6 0.00 0.00 0.00 60 1016.8
20260830031044 88 360 7.8 15.6 0.00 0.00 0.00 60 1016.9
20260830030921 88 360 7.8 15.6 0.00 0.00 0.00 60 1016.8
20260830030822 88 360 8.7 15.6 0.00 0.00 0.00 59 1016.8
20260830030722 88 360 10.4 15.6 0.00 0.00 0.00 59 1016.8
20260830030626 88 360 11.3 15.6 0.00 0.00 0.00 59 1016.7
20260830030549 88 360 10.4 15.6 0.00 0.00 0.00 59 1016.8
20260830030429 88 360 9.6 15.6 0.00 0.00 0.00 59 1016.8
20260830030330 89 360 8.7 14.8 0.00 0.00 0.00 59 1016.8
20260830030231 89 360 8.7 14.8 0.00 0.00 0.00 58 1016.7
20260830030130 89 360 8.7 14.8 0.00 0.00 0.00 58 1016.8
20260830030031 89 360 8.7 14.8 0.00 0.00 0.00 58 1016.8
20260830025935 89 360 9.6 14.8 0.00 0.00 0.00 58 1016.8
20260830025817 89 360 10.4 14.8 0.00 0.00 0.00 58 1016.8
20260830025716 89 360 10.4 14.8 0.00 0.00 0.00 57 1016.8
20260830025617 89 360 9.6 14.8 0.00 0.00 0.00 57 1016.7
20260830025517 89 360 9.6 14.8 0.00 0.00 0.00 57 1016.7
20260830025418 89 360 9.6 14.8 0.00 0.00 0.00 57 1016.7
20260830025322 89 360 9.6 14.8 0.00 0.00 0.00 57 1016.7
20260830025243 89 360 7.8 12.2 0.00 0.00 0.00 57 1016.7
20260830025122 89 360 7.0 12.2 0.00 0.00 0.00 56 1016.7
20260830025022 89 153 6.1 9.6 0.00 0.00 0.00 56 1016.7
20260830024920 89 360 6.1 9.6 0.00 0.00 0.00 56 1016.7
20260830024821 89 360 5.2 9.6 0.00 0.00 0.00 56 1016.6
20260830024722 89 360 5.2 9.6 0.00 0.00 0.00 55 1016.6
20260830024642 89 360 5.2 11.3 0.00 0.00 0.00 55 1016.6
20260830024541 89 360 5.2 11.3 0.00 0.00 0.00 55 1016.6
20260830024441 89 360 6.1 11.3 0.00 0.00 0.00 55 1016.6
20260830024325 89 360 6.1 11.3 0.00 0.00 0.00 55 1016.5
20260830024226 89 360 6.1 11.3 0.00 0.00 0.00 55 1016.5
20260830024126 89 360 6.1 11.3 0.00 0.00 0.00 54 1016.5
20260830024027 89 360 6.1 11.3 0.00 0.00 0.00 54 1016.5
20260830023927 89 360 6.1 11.3 0.00 0.00 0.00 54 1016.5
20260830023828 89 360 5.2 9.6 0.00 0.00 0.00 54 1016.5
20260830023733 89 135 4.3 9.6 0.00 0.00 0.00 54 1016.5
20260830023635 89 360 4.3 9.6 0.00 0.00 0.00 55 1016.4
20260830023515 89 360 4.3 9.6 0.00 0.00 0.00 54 1016.4
20260830023416 89 142 5.2 9.6 0.00 0.00 0.00 54 1016.4
20260830023316 89 360 4.3 9.6 0.00 0.00 0.00 54 1016.4
20260830023217 89 360 5.2 9.6 0.00 0.00 0.00 54 1016.4
20260830023122 89 360 4.3 8.7 0.00 0.00 0.00 54 1016.4
20260830023043 89 360 5.2 8.7 0.00 0.00 0.00 54 1016.4
20260830022922 89 360 4.3 8.7 0.00 0.00 0.00 54 1016.4
20260830022823 89 360 4.3 7.8 0.00 0.00 0.00 53 1016.4
20260830022723 89 360 4.3 7.0 0.00 0.00 0.00 53 1016.3
20260830022643 89 360 4.3 7.0 0.00 0.00 0.00 53 1016.2
20260830022522 89 360 4.3 7.0 0.00 0.00 0.00 54 1016.2
20260830022423 89 360 3.5 7.0 0.00 0.00 0.00 54 1016.2
20260830022328 89 360 3.5 7.0 0.00 0.00 0.00 54 1016.2
20260830022228 89 360 3.5 7.0 0.00 0.00 0.00 54 1016.1
20260830022149 89 360 3.5 7.0 0.00 0.00 0.00 54 1016.1
20260830022029 89 360 4.3 7.0 0.00 0.00 0.00 54 1016.0
20260830021930 89 360 4.3 7.0 0.00 0.00 0.00 53 1016.1
20260830021830 89 360 4.3 7.0 0.00 0.00 0.00 53 1016.0
20260830021730 89 360 4.3 5.2 0.00 0.00 0.00 53 1016.0
20260830021635 89 360 4.3 5.2 0.00 0.00 0.00 53 1016.0
20260830021535 89 360 4.3 5.2 0.00 0.00 0.00 53 1015.9
20260830021416 89 360 3.5 5.2 0.00 0.00 0.00 53 1016.0
20260830021336 89 360 3.5 4.3 0.00 0.00 0.00 53 1015.9
20260830021216 89 360 3.5 4.3 0.00 0.00 0.00 53 1015.9
20260830021116 89 360 3.5 4.3 0.00 0.00 0.00 53 1015.9
20260830021017 89 360 3.5 4.3 0.00 0.00 0.00 53 1015.8
20260830020942 89 360 2.6 4.3 0.00 0.00 0.00 54 1015.8
20260830020822 89 360 2.6 3.5 0.00 0.00 0.00 54 1015.8
20260830020742 89 159 2.6 3.5 0.00 0.00 0.00 54 1015.8
20260830020623 89 360 2.6 3.5 0.00 0.00 0.00 54 1015.8
20260830020523 89 360 1.7 3.5 0.00 0.00 0.00 54 1015.8
20260830020424 90 360 1.7 3.5 0.00 0.00 0.00 54 1015.8
20260830020324 90 360 1.7 2.6 0.00 0.00 0.00 54 1015.8
20260830020230 90 360 1.7 3.5 0.00 0.00 0.00 54 1015.8
20260830020130 90 360 1.7 3.5 0.00 0.00 0.00 53 1015.7
20260830020031 90 360 1.7 3.5 0.00 0.00 0.00 53 1015.7
20260830015931 90 360 1.7 3.5 0.00 0.00 0.00 53 1015.7
20260830015853 90 360 1.7 3.5 0.00 0.00 0.00 53 1015.6
20260830015730 90 360 1.7 3.5 0.00 0.00 0.00 53 1015.7
20260830015630 90 360 2.6 3.5 0.00 0.00 0.00 52 1015.6
20260830015530 90 360 2.6 3.5 0.00 0.00 0.00 52 1015.6
20260830015435 90 360 2.6 3.5 0.00 0.00 0.00 52 1015.6
20260830015336 90 360 1.7 3.5 0.00 0.00 0.00 52 1015.5
20260830015216 90 360 1.7 2.6 0.00 0.00 0.00 52 1015.6
20260830015116 90 360 1.7 3.5 0.00 0.00 0.00 52 1015.5
20260830015016 90 360 1.7 3.5 0.00 0.00 0.00 51 1015.4
20260830014917 91 360 1.7 3.5 0.00 0.00 0.00 51 1015.5
20260830014822 91 360 1.7 3.5 0.00 0.00 0.00 51 1015.4
20260830014741 91 360 1.7 3.5 0.00 0.00 0.00 51 1015.4